Observation data for Earth on 05/25/2019      Previous  Date  Next       Current Mesonet Observations  Soil Data  Daily Summary Page  Observations in Plain Language
KEA1 250500Z 14017KT 20/16 A2997 RMK A01 T01980164  RH  081%=      5-min Rain = 0
KEA1 250501Z 15015KT 20/16 A2997 RMK A01 T01970164  RH  081%=      5-min Rain = 0
KEA1 250502Z 15017KT 20/16 A2997 RMK A01 T01970164  RH  081%=      5-min Rain = 0
KEA1 250503Z 14015KT 20/17 A2998 RMK A01 T01970165  RH  081%=      5-min Rain = 0
KEA1 250504Z 15015KT 20/17 A2998 RMK A01 T01970165  RH  082%=      5-min Rain = 0
KEA1 250505Z 15016KT 20/17 A2998 RMK A01 T01970165  RH  082%=      5-min Rain = 0
KEA1 250506Z 15014KT 20/17 A2998 RMK A01 T01960165  RH  082%=      5-min Rain = 0
KEA1 250507Z 15015KT 20/17 A2998 RMK A01 T01960165  RH  082%=      5-min Rain = 0
KEA1 250508Z 15017KT 20/17 A2998 RMK A01 T01960166  RH  083%=      5-min Rain = 0
KEA1 250509Z 15015KT 20/17 A2998 RMK A01 T01960166  RH  083%=      5-min Rain = 0
KEA1 250510Z 15016KT 20/17 A2998 RMK A01 T01970166  RH  083%=      5-min Rain = 0
KEA1 250511Z 15015KT 20/17 A2998 RMK A01 T01970167  RH  083%=      5-min Rain = 0
KEA1 250512Z 15017KT 20/17 A2998 RMK A01 T01970167  RH  083%=      5-min Rain = 0
KEA1 250513Z 15016KT 20/17 A2998 RMK A01 T01960167  RH  083%=      5-min Rain = 0
KEA1 250514Z 15016KT 20/17 A2998 RMK A01 T01970167  RH  083%=      5-min Rain = 0
KEA1 250515Z 15016KT 20/17 A2998 RMK A01 T01970167  RH  083%=      5-min Rain = 0
KEA1 250516Z 15016KT 20/17 A2998 RMK A01 T01970168  RH  083%=      5-min Rain = 0
KEA1 250517Z 15016KT 20/17 A2998 RMK A01 T01970168  RH  083%=      5-min Rain = 0
KEA1 250518Z 15016KT 20/17 A2998 RMK A01 T01970168  RH  083%=      5-min Rain = 0
KEA1 250519Z 15015G20KT 20/17 A2998 RMK A01 T01970168  RH  083%=      5-min Rain = 0
KEA1 250520Z 15019KT 20/17 A2998 RMK A01 T01970169  RH  084%=      5-min Rain = 0
KEA1 250521Z 15017KT 20/17 A2998 RMK A01 T01980169  RH  083%=      5-min Rain = 0
KEA1 250522Z 14016KT 20/17 A2998 RMK A01 T01980169  RH  083%=      5-min Rain = 0
KEA1 250523Z 14014KT 20/17 A2998 RMK A01 T01980169  RH  083%=      5-min Rain = 0
KEA1 250524Z 14016KT 20/17 A2998 RMK A01 T01970169  RH  084%=      5-min Rain = 0
KEA1 250525Z 14017KT 20/17 A2998 RMK A01 T01980170  RH  084%=      5-min Rain = 0
KEA1 250526Z 14014KT 20/17 A2998 RMK A01 T01980170  RH  084%=      5-min Rain = 0
KEA1 250527Z 15012KT 20/17 A2998 RMK A01 T01970169  RH  084%=      5-min Rain = 0
KEA1 250528Z 14012KT 20/17 A2998 RMK A01 T01970169  RH  084%=      5-min Rain = 0
KEA1 250529Z 14014KT 20/17 A2998 RMK A01 T01960169  RH  084%=      5-min Rain = 0
KEA1 250530Z 14015KT 20/17 A2998 RMK A01 T01960169  RH  085%=      5-min Rain = 0
KEA1 250531Z 14016KT 20/17 A2998 RMK A01 T01960170  RH  085%=      5-min Rain = 0
KEA1 250532Z 14014KT 20/17 A2998 RMK A01 T01960170  RH  085%=      5-min Rain = 0
KEA1 250533Z 14015G20KT 20/17 A2998 RMK A01 T01960170  RH  085%=      5-min Rain = 0
KEA1 250534Z 14016KT 20/17 A2998 RMK A01 T01960170  RH  085%=      5-min Rain = 0
KEA1 250535Z 15015KT 20/17 A2998 RMK A01 T01960170  RH  085%=      5-min Rain = 0
KEA1 250536Z 14016KT 20/17 A2998 RMK A01 T01960170  RH  085%=      5-min Rain = 0
KEA1 250537Z 15016KT 20/17 A2998 RMK A01 T01960170  RH  085%=      5-min Rain = 0
KEA1 250538Z 14016KT 20/17 A2998 RMK A01 T01960170  RH  085%=      5-min Rain = 0
KEA1 250539Z 14016KT 20/17 A2998 RMK A01 T01960170  RH  085%=      5-min Rain = 0
KEA1 250540Z 15016KT 20/17 A2998 RMK A01 T01960170  RH  085%=      5-min Rain = 0
KEA1 250541Z 15017KT 20/17 A2998 RMK A01 T01960171  RH  085%=      5-min Rain = 0
KEA1 250542Z 15015KT 20/17 A2998 RMK A01 T01960171  RH  085%=      5-min Rain = 0
KEA1 250543Z 15015KT 20/17 A2998 RMK A01 T01960170  RH  085%=      5-min Rain = 0
KEA1 250544Z 15016KT 20/17 A2998 RMK A01 T01950170  RH  085%=      5-min Rain = 0
KEA1 250545Z 15015KT 20/17 A2998 RMK A01 T01950170  RH  086%=      5-min Rain = 0
KEA1 250546Z 15016KT 20/17 A2998 RMK A01 T01950170  RH  086%=      5-min Rain = 0
KEA1 250547Z 14014G19KT 20/17 A2998 RMK A01 T01950170  RH  086%=      5-min Rain = 0
KEA1 250548Z 15014KT 19/17 A2998 RMK A01 T01940170  RH  086%=      5-min Rain = 0
KEA1 250549Z 14017KT 19/17 A2998 RMK A01 T01940170  RH  086%=      5-min Rain = 0
KEA1 250550Z 15017KT 19/17 A2998 RMK A01 T01940170  RH  086%=      5-min Rain = 0
KEA1 250551Z 15015KT 19/17 A2999 RMK A01 T01940170  RH  086%=      5-min Rain = 0
KEA1 250552Z 15016KT 19/17 A2998 RMK A01 T01940170  RH  086%=      5-min Rain = 0
KEA1 250553Z 15015KT 20/17 A2999 RMK A01 T01950171  RH  086%=      5-min Rain = 0
KEA1 250554Z 15012G17KT 19/17 A2999 RMK A01 T01940170  RH  086%=      5-min Rain = 0
KEA1 250555Z 15015KT 19/17 A2999 RMK A01 T01940170  RH  086%=      5-min Rain = 0
KEA1 250556Z 15013KT 19/17 A2999 RMK A01 T01940170  RH  086%=      5-min Rain = 0
KEA1 250557Z 15014KT 19/17 A2999 RMK A01 T01940170  RH  086%=      5-min Rain = 0
KEA1 250558Z 15014KT 19/17 A2999 RMK A01 T01930170  RH  086%=      5-min Rain = 0
KEA1 250559Z 15014KT 19/17 A2999 RMK A01 T01930170  RH  087%=      5-min Rain = 0
KEA1 250600Z 15014KT 19/17 A2999 RMK A01 T01930170  RH  087%=      5-min Rain = 0
KEA1 250601Z 15016KT 19/17 A2999 RMK A01 T01930170  RH  087%=      5-min Rain = 0
KEA1 250602Z 15014KT 19/17 A2999 RMK A01 T01930170  RH  087%=      5-min Rain = 0
KEA1 250603Z 15016KT 19/17 A2999 RMK A01 T01930170  RH  087%=      5-min Rain = 0
KEA1 250604Z 15013KT 19/17 A2999 RMK A01 T01930170  RH  087%=      5-min Rain = 0
KEA1 250605Z 15013KT 19/17 A2999 RMK A01 T01930170  RH  087%=      5-min Rain = 0
KEA1 250606Z 15013KT 19/17 A2999 RMK A01 T01920170  RH  087%=      5-min Rain = 0
KEA1 250607Z 15012KT 19/17 A2999 RMK A01 T01920170  RH  087%=      5-min Rain = 0
KEA1 250608Z 15015KT 19/17 A2999 RMK A01 T01920170  RH  087%=      5-min Rain = 0
KEA1 250609Z 16012KT 19/17 A30 RMK A01 T01920171  RH  087%=      5-min Rain = 0
KEA1 250610Z 16012KT 19/17 A30 RMK A01 T01920170  RH  087%=      5-min Rain = 0
KEA1 250611Z 15012KT 19/17 A2999 RMK A01 T01910170  RH  088%=      5-min Rain = 0
KEA1 250612Z 15011KT 19/17 A2999 RMK A01 T01910170  RH  088%=      5-min Rain = 0
KEA1 250613Z 16010KT 19/17 A2999 RMK A01 T01910170  RH  088%=      5-min Rain = 0
KEA1 250614Z 15011KT 19/17 A2999 RMK A01 T01910170  RH  088%=      5-min Rain = 0
KEA1 250615Z 16011KT 19/17 A2999 RMK A01 T01900170  RH  088%=      5-min Rain = 0
KEA1 250616Z 16010KT 19/17 A30 RMK A01 T01900170  RH  088%=      5-min Rain = 0
KEA1 250617Z 16012KT 19/17 A30 RMK A01 T01900170  RH  088%=      5-min Rain = 0
KEA1 250618Z 16011KT 19/17 A2999 RMK A01 T01900170  RH  088%=      5-min Rain = 0
KEA1 250619Z 15010KT 19/17 A2999 RMK A01 T01900170  RH  088%=      5-min Rain = 0
KEA1 250620Z 15013KT 19/17 A2999 RMK A01 T01890170  RH  088%=      5-min Rain = 0
KEA1 250621Z 15011KT 19/17 A2999 RMK A01 T01900170  RH  089%=      5-min Rain = 0
KEA1 250622Z 15013KT 19/17 A2999 RMK A01 T01900170  RH  088%=      5-min Rain = 0
KEA1 250623Z 15012KT 19/17 A2999 RMK A01 T01890170  RH  089%=      5-min Rain = 0
KEA1 250624Z 15012KT 19/17 A2999 RMK A01 T01890170  RH  089%=      5-min Rain = 0
KEA1 250625Z 15014KT 19/17 A2999 RMK A01 T01890171  RH  089%=      5-min Rain = 0
KEA1 250626Z 15013KT 19/17 A2999 RMK A01 T01890170  RH  089%=      5-min Rain = 0
KEA1 250627Z 15013KT 19/17 A2999 RMK A01 T01890170  RH  089%=      5-min Rain = 0
KEA1 250628Z 15015KT 19/17 A2999 RMK A01 T01890170  RH  089%=      5-min Rain = 0
KEA1 250629Z 15014KT 19/17 A2999 RMK A01 T01890170  RH  089%=      5-min Rain = 0
KEA1 250630Z 15012KT 19/17 A2999 RMK A01 T01890170  RH  089%=      5-min Rain = 0
KEA1 250631Z 15014KT 19/17 A2999 RMK A01 T01900170  RH  088%=      5-min Rain = 0
KEA1 250632Z 15014KT 19/17 A2999 RMK A01 T01900170  RH  089%=      5-min Rain = 0
KEA1 250633Z 16013KT 19/17 A2999 RMK A01 T01900170  RH  089%=      5-min Rain = 0
KEA1 250634Z 15011KT 19/17 A2999 RMK A01 T01900170  RH  089%=      5-min Rain = 0
KEA1 250635Z 16010KT 19/17 A2999 RMK A01 T01890170  RH  089%=      5-min Rain = 0
KEA1 250636Z 15012KT 19/17 A2999 RMK A01 T01880170  RH  089%=      5-min Rain = 0
KEA1 250637Z 15013KT 19/17 A2999 RMK A01 T01880170  RH  089%=      5-min Rain = 0
KEA1 250638Z 15011KT 19/17 A2999 RMK A01 T01880171  RH  089%=      5-min Rain = 0
KEA1 250639Z 15013KT 19/17 A2999 RMK A01 T01880170  RH  089%=      5-min Rain = 0
KEA1 250640Z 15013KT 19/17 A2999 RMK A01 T01880170  RH  089%=      5-min Rain = 0
KEA1 250641Z 15013KT 19/17 A2999 RMK A01 T01880170  RH  089%=      5-min Rain = 0
KEA1 250642Z 15010KT 19/17 A2999 RMK A01 T01880170  RH  089%=      5-min Rain = 0
KEA1 250643Z 15013KT 19/17 A2999 RMK A01 T01880170  RH  089%=      5-min Rain = 0
KEA1 250644Z 15012KT 19/17 A2999 RMK A01 T01880170  RH  090%=      5-min Rain = 0
KEA1 250645Z 15012G17KT 19/17 A2998 RMK A01 T01880170  RH  089%=      5-min Rain = 0
KEA1 250646Z 15013KT 19/17 A2999 RMK A01 T01880170  RH  089%=      5-min Rain = 0
KEA1 250647Z 15013KT 19/17 A2999 RMK A01 T01880170  RH  089%=      5-min Rain = 0
KEA1 250648Z 16012KT 19/17 A2998 RMK A01 T01880170  RH  089%=      5-min Rain = 0
KEA1 250649Z 15013KT 19/17 A2998 RMK A01 T01880170  RH  089%=      5-min Rain = 0
KEA1 250650Z 15013KT 19/17 A2998 RMK A01 T01880170  RH  089%=      5-min Rain = 0
KEA1 250651Z 15011KT 19/17 A2998 RMK A01 T01880170  RH  089%=      5-min Rain = 0
KEA1 250652Z 15011KT 19/17 A2998 RMK A01 T01880170  RH  089%=      5-min Rain = 0
KEA1 250653Z 15012KT 19/17 A2998 RMK A01 T01870170  RH  090%=      5-min Rain = 0
KEA1 250654Z 15013KT 19/17 A2998 RMK A01 T01870170  RH  090%=      5-min Rain = 0
KEA1 250655Z 15013KT 19/17 A2998 RMK A01 T01870170  RH  090%=      5-min Rain = 0
KEA1 250656Z 15012KT 19/17 A2998 RMK A01 T01870170  RH  090%=      5-min Rain = 0
KEA1 250657Z 15012KT 19/17 A2998 RMK A01 T01870170  RH  090%=      5-min Rain = 0
KEA1 250658Z 14012KT 19/17 A2998 RMK A01 T01860170  RH  090%=      5-min Rain = 0
KEA1 250659Z 14013KT 19/17 A2998 RMK A01 T01860170  RH  090%=      5-min Rain = 0
KEA1 250700Z 15013KT 19/17 A2998 RMK A01 T01860169  RH  090%=      5-min Rain = 0
KEA1 250701Z 15013KT 19/17 A2998 RMK A01 T01860170  RH  090%=      5-min Rain = 0
KEA1 250702Z 14013KT 19/17 A2998 RMK A01 T01860169  RH  090%=      5-min Rain = 0
KEA1 250703Z 14013KT 19/17 A2998 RMK A01 T01860170  RH  090%=      5-min Rain = 0
KEA1 250704Z 14014KT 19/17 A2998 RMK A01 T01860170  RH  090%=      5-min Rain = 0
KEA1 250705Z 14013KT 19/17 A2998 RMK A01 T01860169  RH  090%=      5-min Rain = 0
KEA1 250706Z 14014KT 19/17 A2998 RMK A01 T01860170  RH  090%=      5-min Rain = 0
KEA1 250707Z 14015KT 19/17 A2998 RMK A01 T01860170  RH  090%=      5-min Rain = 0
KEA1 250708Z 14013KT 19/17 A2998 RMK A01 T01860169  RH  090%=      5-min Rain = 0
KEA1 250709Z 14013KT 19/17 A2998 RMK A01 T01860169  RH  090%=      5-min Rain = 0
KEA1 250710Z 14012KT 19/17 A2998 RMK A01 T01860169  RH  090%=      5-min Rain = 0
KEA1 250711Z 14012KT 19/17 A2998 RMK A01 T01850169  RH  090%=      5-min Rain = 0
KEA1 250712Z 14012KT 19/17 A2998 RMK A01 T01850169  RH  090%=      5-min Rain = 0
KEA1 250713Z 15011KT 19/17 A2998 RMK A01 T01850169  RH  091%=      5-min Rain = 0
KEA1 250714Z 14013KT 18/17 A2998 RMK A01 T01840169  RH  091%=      5-min Rain = 0
KEA1 250715Z 14012KT 18/17 A2998 RMK A01 T01840169  RH  091%=      5-min Rain = 0
KEA1 250716Z 15012G17KT 18/17 A2998 RMK A01 T01840169  RH  091%=      5-min Rain = 0
KEA1 250717Z 15012KT 18/17 A2998 RMK A01 T01840169  RH  091%=      5-min Rain = 0
KEA1 250718Z 14010KT 18/17 A2998 RMK A01 T01840168  RH  091%=      5-min Rain = 0
KEA1 250719Z 15010KT 18/17 A2998 RMK A01 T01830168  RH  091%=      5-min Rain = 0
KEA1 250720Z 15011KT 18/17 A2998 RMK A01 T01830168  RH  091%=      5-min Rain = 0
KEA1 250721Z 15010KT 18/17 A2998 RMK A01 T01830168  RH  091%=      5-min Rain = 0
KEA1 250722Z 14010KT 18/17 A2998 RMK A01 T01820168  RH  091%=      5-min Rain = 0
KEA1 250723Z 14010KT 18/17 A2998 RMK A01 T01820168  RH  091%=      5-min Rain = 0
KEA1 250724Z 14010KT 18/17 A2998 RMK A01 T01810168  RH  092%=      5-min Rain = 0
KEA1 250725Z 14010KT 18/17 A2998 RMK A01 T01820168  RH  092%=      5-min Rain = 0
KEA1 250726Z 14010KT 18/17 A2998 RMK A01 T01810168  RH  092%=      5-min Rain = 0
KEA1 250727Z 14010KT 18/17 A2998 RMK A01 T01810167  RH  092%=      5-min Rain = 0
KEA1 250728Z 14008KT 18/17 A2998 RMK A01 T01810168  RH  092%=      5-min Rain = 0
KEA1 250729Z 14009KT 18/17 A2998 RMK A01 T01800167  RH  092%=      5-min Rain = 0
KEA1 250730Z 14010KT 18/17 A2998 RMK A01 T01800167  RH  092%=      5-min Rain = 0
KEA1 250731Z 14010KT 18/17 A2998 RMK A01 T01800167  RH  092%=      5-min Rain = 0
KEA1 250732Z 14009KT 18/17 A2998 RMK A01 T01790167  RH  092%=      5-min Rain = 0
KEA1 250733Z 14010KT 18/17 A2998 RMK A01 T01800167  RH  092%=      5-min Rain = 0
KEA1 250734Z 14009KT 18/17 A2998 RMK A01 T01800167  RH  092%=      5-min Rain = 0
KEA1 250735Z 14010KT 18/17 A2998 RMK A01 T01790167  RH  092%=      5-min Rain = 0
KEA1 250736Z 14010KT 18/17 A2998 RMK A01 T01790167  RH  092%=      5-min Rain = 0
KEA1 250737Z 14009KT 18/17 A2998 RMK A01 T01790167  RH  093%=      5-min Rain = 0
KEA1 250738Z 14010KT 18/17 A2998 RMK A01 T01790167  RH  093%=      5-min Rain = 0
KEA1 250739Z 14010KT 18/17 A2998 RMK A01 T01790167  RH  093%=      5-min Rain = 0
KEA1 250740Z 14009KT 18/17 A2998 RMK A01 T01790167  RH  093%=      5-min Rain = 0
KEA1 250741Z 14010KT 18/17 A2998 RMK A01 T01780167  RH  093%=      5-min Rain = 0
KEA1 250742Z 14010KT 18/17 A2998 RMK A01 T01780167  RH  093%=      5-min Rain = 0
KEA1 250743Z 14010KT 18/17 A2998 RMK A01 T01780167  RH  093%=      5-min Rain = 0
KEA1 250744Z 14011KT 18/17 A2998 RMK A01 T01780167  RH  093%=      5-min Rain = 0
KEA1 250745Z 14010KT 18/17 A2998 RMK A01 T01780167  RH  093%=      5-min Rain = 0
KEA1 250746Z 14010KT 18/17 A2998 RMK A01 T01780167  RH  093%=      5-min Rain = 0
KEA1 250747Z 14010KT 18/17 A2998 RMK A01 T01780167  RH  093%=      5-min Rain = 0
KEA1 250748Z 14010KT 18/17 A2998 RMK A01 T01770166  RH  093%=      5-min Rain = 0
KEA1 250749Z 14011KT 18/17 A2998 RMK A01 T01770167  RH  093%=      5-min Rain = 0
KEA1 250750Z 14011KT 18/17 A2998 RMK A01 T01770167  RH  094%=      5-min Rain = 0
KEA1 250751Z 14011KT 18/17 A2998 RMK A01 T01780167  RH  094%=      5-min Rain = 0
KEA1 250752Z 14011KT 18/17 A2998 RMK A01 T01770167  RH  094%=      5-min Rain = 0
KEA1 250753Z 14011KT 18/17 A2998 RMK A01 T01770166  RH  093%=      5-min Rain = 0
KEA1 250754Z 14010KT 18/17 A2998 RMK A01 T01770166  RH  094%=      5-min Rain = 0
KEA1 250755Z 14011KT 18/17 A2998 RMK A01 T01770166  RH  094%=      5-min Rain = 0
KEA1 250756Z 13010KT 18/17 A2998 RMK A01 T01770166  RH  094%=      5-min Rain = 0
KEA1 250757Z 14011KT 18/17 A2998 RMK A01 T01770166  RH  094%=      5-min Rain = 0
KEA1 250758Z 14011KT 18/17 A2998 RMK A01 T01770166  RH  094%=      5-min Rain = 0
KEA1 250759Z 14010KT 18/17 A2998 RMK A01 T01770166  RH  094%=      5-min Rain = 0
KEA1 250800Z 14011KT 18/17 A2998 RMK A01 T01760166  RH  094%=      5-min Rain = 0
KEA1 250801Z 14010KT 18/17 A2998 RMK A01 T01760166  RH  094%=      5-min Rain = 0
KEA1 250802Z 14010KT 18/17 A2998 RMK A01 T01760166  RH  094%=      5-min Rain = 0
KEA1 250803Z 14009KT 18/17 A2997 RMK A01 T01760166  RH  094%=      5-min Rain = 0
KEA1 250804Z 14010KT 18/17 A2997 RMK A01 T01760166  RH  094%=      5-min Rain = 0
KEA1 250805Z 13010KT 18/17 A2997 RMK A01 T01750166  RH  094%=      5-min Rain = 0
KEA1 250806Z 14010KT 18/17 A2997 RMK A01 T01750165  RH  094%=      5-min Rain = 0
KEA1 250807Z 14009KT 18/17 A2997 RMK A01 T01750166  RH  094%=      5-min Rain = 0
KEA1 250808Z 14010KT 17/17 A2997 RMK A01 T01740165  RH  094%=      5-min Rain = 0
KEA1 250809Z 14011KT 17/17 A2997 RMK A01 T01740165  RH  094%=      5-min Rain = 0
KEA1 250810Z 14011KT 17/17 A2997 RMK A01 T01740165  RH  094%=      5-min Rain = 0
KEA1 250811Z 14010KT 17/17 A2998 RMK A01 T01740165  RH  094%=      5-min Rain = 0
KEA1 250812Z 14011KT 17/17 A2997 RMK A01 T01740165  RH  094%=      5-min Rain = 0
KEA1 250813Z 14011KT 17/17 A2997 RMK A01 T01740165  RH  094%=      5-min Rain = 0
KEA1 250814Z 14011KT 17/17 A2997 RMK A01 T01740165  RH  094%=      5-min Rain = 0
KEA1 250815Z 14012KT 17/17 A2997 RMK A01 T01740165  RH  094%=      5-min Rain = 0
KEA1 250816Z 14010KT 17/17 A2997 RMK A01 T01740165  RH  095%=      5-min Rain = 0
KEA1 250817Z 14011KT 17/17 A2997 RMK A01 T01740165  RH  095%=      5-min Rain = 0
KEA1 250818Z 14011KT 17/17 A2997 RMK A01 T01740165  RH  095%=      5-min Rain = 0
KEA1 250819Z 14011KT 17/17 A2997 RMK A01 T01740165  RH  095%=      5-min Rain = 0
KEA1 250820Z 14012KT 17/17 A2997 RMK A01 T01740165  RH  095%=      5-min Rain = 0
KEA1 250821Z 14011KT 17/17 A2997 RMK A01 T01740165  RH  095%=      5-min Rain = 0
KEA1 250822Z 14011KT 17/17 A2997 RMK A01 T01740166  RH  095%=      5-min Rain = 0
KEA1 250823Z 14010KT 17/17 A2997 RMK A01 T01740165  RH  095%=      5-min Rain = 0
KEA1 250824Z 14010KT 17/17 A2997 RMK A01 T01730165  RH  095%=      5-min Rain = 0
KEA1 250825Z 14009KT 17/17 A2997 RMK A01 T01730165  RH  095%=      5-min Rain = 0
KEA1 250826Z 14011KT 17/17 A2997 RMK A01 T01730165  RH  095%=      5-min Rain = 0
KEA1 250827Z 14011KT 17/17 A2997 RMK A01 T01730165  RH  095%=      5-min Rain = 0
KEA1 250828Z 14011KT 17/17 A2998 RMK A01 T01730165  RH  095%=      5-min Rain = 0
KEA1 250829Z 14010KT 17/17 A2998 RMK A01 T01730165  RH  095%=      5-min Rain = 0
KEA1 250830Z 14009KT 17/17 A2998 RMK A01 T01730165  RH  095%=      5-min Rain = 0
KEA1 250831Z 14009KT 17/17 A2998 RMK A01 T01730165  RH  095%=      5-min Rain = 0
KEA1 250832Z 14009KT 17/17 A2997 RMK A01 T01730165  RH  095%=      5-min Rain = 0
KEA1 250833Z 14008KT 17/17 A2997 RMK A01 T01730165  RH  095%=      5-min Rain = 0
KEA1 250834Z 14008KT 17/17 A2997 RMK A01 T01730165  RH  095%=      5-min Rain = 0
KEA1 250835Z 14009KT 17/17 A2997 RMK A01 T01720165  RH  095%=      5-min Rain = 0
KEA1 250836Z 13009KT 17/17 A2997 RMK A01 T01720165  RH  095%=      5-min Rain = 0
KEA1 250837Z 14008KT 17/17 A2997 RMK A01 T01720165  RH  095%=      5-min Rain = 0
KEA1 250838Z 14008KT 17/17 A2997 RMK A01 T01720165  RH  095%=      5-min Rain = 0
KEA1 250839Z 13009KT 17/17 A2997 RMK A01 T01720165  RH  096%=      5-min Rain = 0
KEA1 250840Z 14008KT 17/17 A2997 RMK A01 T01720165  RH  096%=      5-min Rain = 0
KEA1 250841Z 14006KT 17/17 A2997 RMK A01 T01720165  RH  096%=      5-min Rain = 0
KEA1 250842Z 13009KT 17/17 A2997 RMK A01 T01720165  RH  096%=      5-min Rain = 0
KEA1 250843Z 13008KT 17/17 A2997 RMK A01 T01720166  RH  096%=      5-min Rain = 0
KEA1 250844Z 13008KT 17/17 A2997 RMK A01 T01720165  RH  096%=      5-min Rain = 0
KEA1 250845Z 14008KT 17/17 A2997 RMK A01 T01720166  RH  096%=      5-min Rain = 0
KEA1 250846Z 13007KT 17/17 A2997 RMK A01 T01720166  RH  096%=      5-min Rain = 0
KEA1 250847Z 13008KT 17/17 A2997 RMK A01 T01720166  RH  096%=      5-min Rain = 0
KEA1 250848Z 13007KT 17/17 A2997 RMK A01 T01720166  RH  096%=      5-min Rain = 0
KEA1 250849Z 13008KT 17/17 A2997 RMK A01 T01720166  RH  096%=      5-min Rain = 0
KEA1 250850Z 13008KT 17/17 A2997 RMK A01 T01720166  RH  096%=      5-min Rain = 0
KEA1 250851Z 13008KT 17/17 A2997 RMK A01 T01720166  RH  096%=      5-min Rain = 0
KEA1 250852Z 13008KT 17/17 A2997 RMK A01 T01720166  RH  096%=      5-min Rain = 0
KEA1 250853Z 13008KT 17/17 A2997 RMK A01 T01720166  RH  096%=      5-min Rain = 0
KEA1 250854Z 13008KT 17/17 A2997 RMK A01 T01720166  RH  096%=      5-min Rain = 0
KEA1 250855Z 14008KT 17/17 A2997 RMK A01 T01720166  RH  096%=      5-min Rain = 0
KEA1 250856Z 13009KT 17/17 A2997 RMK A01 T01720166  RH  096%=      5-min Rain = 0
KEA1 250857Z 13011KT 17/17 A2997 RMK A01 T01720166  RH  096%=      5-min Rain = 0
KEA1 250858Z 13011KT 17/17 A2997 RMK A01 T01730167  RH  096%=      5-min Rain = 0
KEA1 250859Z 13010KT 17/17 A2997 RMK A01 T01730167  RH  096%=      5-min Rain = 0
KEA1 250900Z 13011KT 17/17 A2997 RMK A01 T01730167  RH  096%=      5-min Rain = 0
KEA1 250901Z 13011KT 17/17 A2997 RMK A01 T01730167  RH  096%=      5-min Rain = 0
KEA1 250902Z 13009KT 17/17 A2997 RMK A01 T01730167  RH  096%=      5-min Rain = 0
KEA1 250903Z 13010KT 17/17 A2997 RMK A01 T01730167  RH  096%=      5-min Rain = 0
KEA1 250904Z 13010KT 17/17 A2997 RMK A01 T01730167  RH  096%=      5-min Rain = 0
KEA1 250905Z 13009KT 17/17 A2997 RMK A01 T01730167  RH  096%=      5-min Rain = 0
KEA1 250906Z 14010KT 17/17 A2997 RMK A01 T01730167  RH  096%=      5-min Rain = 0
KEA1 250907Z 13010KT 17/17 A2997 RMK A01 T01730167  RH  096%=      5-min Rain = 0
KEA1 250908Z 13009KT 17/17 A2997 RMK A01 T01730167  RH  096%=      5-min Rain = 0
KEA1 250909Z 13009KT 17/17 A2997 RMK A01 T01730167  RH  096%=      5-min Rain = 0
KEA1 250910Z 13010KT 17/17 A2997 RMK A01 T01730167  RH  096%=      5-min Rain = 0
KEA1 250911Z 13009KT 17/17 A2997 RMK A01 T01730167  RH  096%=      5-min Rain = 0
KEA1 250912Z 13010KT 17/17 A2997 RMK A01 T01730167  RH  096%=      5-min Rain = 0
KEA1 250913Z 13008KT 17/17 A2997 RMK A01 T01730167  RH  096%=      5-min Rain = 0
KEA1 250914Z 13009KT 17/17 A2997 RMK A01 T01730167  RH  096%=      5-min Rain = 0
KEA1 250915Z 13010KT 17/17 A2997 RMK A01 T01730167  RH  096%=      5-min Rain = 0
KEA1 250916Z 13010KT 17/17 A2997 RMK A01 T01730167  RH  096%=      5-min Rain = 0
KEA1 250917Z 14011KT 17/17 A2997 RMK A01 T01730167  RH  096%=      5-min Rain = 0
KEA1 250918Z 13010KT 17/17 A2997 RMK A01 T01740168  RH  096%=      5-min Rain = 0
KEA1 250919Z 14009KT 17/17 A2997 RMK A01 T01740168  RH  096%=      5-min Rain = 0
KEA1 250920Z 14011KT 17/17 A2997 RMK A01 T01740168  RH  096%=      5-min Rain = 0
KEA1 250921Z 13010KT 17/17 A2997 RMK A01 T01740168  RH  096%=      5-min Rain = 0
KEA1 250922Z 14010KT 17/17 A2997 RMK A01 T01730168  RH  096%=      5-min Rain = 0
KEA1 250923Z 13010KT 17/17 A2997 RMK A01 T01740168  RH  096%=      5-min Rain = 0
KEA1 250924Z 14009KT 17/17 A2997 RMK A01 T01740168  RH  096%=      5-min Rain = 0
KEA1 250925Z 14009KT 17/17 A2997 RMK A01 T01740168  RH  096%=      5-min Rain = 0
KEA1 250926Z 13010KT 17/17 A2997 RMK A01 T01740168  RH  096%=      5-min Rain = 0
KEA1 250927Z 14010KT 17/17 A2997 RMK A01 T01740168  RH  096%=      5-min Rain = 0
KEA1 250928Z 13009KT 17/17 A2997 RMK A01 T01740168  RH  096%=      5-min Rain = 0
KEA1 250929Z 14009KT 17/17 A2997 RMK A01 T01740168  RH  096%=      5-min Rain = 0
KEA1 250930Z 14008KT 17/17 A2997 RMK A01 T01740168  RH  096%=      5-min Rain = 0
KEA1 250931Z 14009KT 18/17 A2997 RMK A01 T01750169  RH  096%=      5-min Rain = 0
KEA1 250932Z 13007KT 18/17 A2997 RMK A01 T01750169  RH  096%=      5-min Rain = 0
KEA1 250933Z 14009KT 17/17 A2997 RMK A01 T01740168  RH  096%=      5-min Rain = 0
KEA1 250934Z 14010KT 18/17 A2997 RMK A01 T01750169  RH  096%=      5-min Rain = 0
KEA1 250935Z 13008KT 18/17 A2997 RMK A01 T01750169  RH  096%=      5-min Rain = 0
KEA1 250936Z 14010KT 18/17 A2997 RMK A01 T01750169  RH  096%=      5-min Rain = 0
KEA1 250937Z 14010KT 18/17 A2997 RMK A01 T01750169  RH  096%=      5-min Rain = 0
KEA1 250938Z 14008KT 18/17 A2997 RMK A01 T01750169  RH  096%=      5-min Rain = 0
KEA1 250939Z 14009KT 18/17 A2997 RMK A01 T01750169  RH  096%=      5-min Rain = 0
KEA1 250940Z 13010KT 18/17 A2997 RMK A01 T01760169  RH  096%=      5-min Rain = 0
KEA1 250941Z 14009KT 18/17 A2997 RMK A01 T01760169  RH  096%=      5-min Rain = 0
KEA1 250942Z 13009KT 18/17 A2997 RMK A01 T01760169  RH  096%=      5-min Rain = 0
KEA1 250943Z 14008KT 18/17 A2997 RMK A01 T01760169  RH  096%=      5-min Rain = 0
KEA1 250944Z 14010KT 18/17 A2997 RMK A01 T01760169  RH  096%=      5-min Rain = 0
KEA1 250945Z 14011KT 18/17 A2997 RMK A01 T01760170  RH  096%=      5-min Rain = 0
KEA1 250946Z 13010KT 18/17 A2997 RMK A01 T01770170  RH  096%=      5-min Rain = 0
KEA1 250947Z 13011KT 18/17 A2997 RMK A01 T01760170  RH  096%=      5-min Rain = 0
KEA1 250948Z 13010KT 18/17 A2997 RMK A01 T01770170  RH  096%=      5-min Rain = 0
KEA1 250949Z 14010KT 18/17 A2997 RMK A01 T01770170  RH  096%=      5-min Rain = 0
KEA1 250950Z 13011KT 18/17 A2997 RMK A01 T01770170  RH  096%=      5-min Rain = 0
KEA1 250951Z 13010KT 18/17 A2997 RMK A01 T01770170  RH  095%=      5-min Rain = 0
KEA1 250952Z 13009KT 18/17 A2997 RMK A01 T01770170  RH  095%=      5-min Rain = 0
KEA1 250953Z 14010KT 18/17 A2997 RMK A01 T01770169  RH  095%=      5-min Rain = 0
KEA1 250954Z 13010KT 18/17 A2997 RMK A01 T01770169  RH  095%=      5-min Rain = 0
KEA1 250955Z 13010KT 18/17 A2997 RMK A01 T01770169  RH  095%=      5-min Rain = 0
KEA1 250956Z 13011KT 18/17 A2997 RMK A01 T01770170  RH  095%=      5-min Rain = 0
KEA1 250957Z 13011KT 18/17 A2997 RMK A01 T01770169  RH  095%=      5-min Rain = 0
KEA1 250958Z 13012KT 18/17 A2997 RMK A01 T01770169  RH  095%=      5-min Rain = 0
KEA1 250959Z 13012KT 18/17 A2997 RMK A01 T01770169  RH  095%=      5-min Rain = 0
KEA1 251000Z 13011KT 18/17 A2997 RMK A01 T01770169  RH  095%=      5-min Rain = 0
KEA1 251001Z 13010KT 18/17 A2997 RMK A01 T01770169  RH  095%=      5-min Rain = 0
KEA1 251002Z 13010KT 18/17 A2997 RMK A01 T01770170  RH  095%=      5-min Rain = 0
KEA1 251003Z 13010KT 18/17 A2997 RMK A01 T01770169  RH  095%=      5-min Rain = 0
KEA1 251004Z 13010KT 18/17 A2997 RMK A01 T01770169  RH  095%=      5-min Rain = 0
KEA1 251005Z 14009KT 18/17 A2997 RMK A01 T01770169  RH  095%=      5-min Rain = 0
KEA1 251006Z 13009KT 18/17 A2997 RMK A01 T01770169  RH  095%=      5-min Rain = 0
KEA1 251007Z 14009KT 18/17 A2998 RMK A01 T01770169  RH  095%=      5-min Rain = 0
KEA1 251008Z 14009KT 18/17 A2998 RMK A01 T01770170  RH  095%=      5-min Rain = 0
KEA1 251009Z 14008KT 18/17 A2998 RMK A01 T01760169  RH  095%=      5-min Rain = 0
KEA1 251010Z 14009KT 18/17 A2998 RMK A01 T01760169  RH  096%=      5-min Rain = 0
KEA1 251011Z 14009KT 18/17 A2998 RMK A01 T01770170  RH  096%=      5-min Rain = 0
KEA1 251012Z 14010KT 18/17 A2998 RMK A01 T01760169  RH  096%=      5-min Rain = 0
KEA1 251013Z 14009KT 18/17 A2998 RMK A01 T01770170  RH  096%=      5-min Rain = 0
KEA1 251014Z 14010KT 18/17 A2998 RMK A01 T01760170  RH  096%=      5-min Rain = 0
KEA1 251015Z 14010KT 18/17 A2998 RMK A01 T01760170  RH  096%=      5-min Rain = 0
KEA1 251016Z 14009KT 18/17 A2998 RMK A01 T01770170  RH  096%=      5-min Rain = 0
KEA1 251017Z 14009KT 18/17 A2998 RMK A01 T01770170  RH  096%=      5-min Rain = 0
KEA1 251018Z 14009KT 18/17 A2998 RMK A01 T01760170  RH  096%=      5-min Rain = 0
KEA1 251019Z 14010KT 18/17 A2998 RMK A01 T01760170  RH  096%=      5-min Rain = 0
KEA1 251020Z 14011KT 18/17 A2998 RMK A01 T01760170  RH  096%=      5-min Rain = 0
KEA1 251021Z 14011KT 18/17 A2998 RMK A01 T01760170  RH  096%=      5-min Rain = 0
KEA1 251022Z 14010KT 18/17 A2998 RMK A01 T01760170  RH  096%=      5-min Rain = 0
KEA1 251023Z 14010KT 18/17 A2998 RMK A01 T01760170  RH  096%=      5-min Rain = 0
KEA1 251024Z 14011KT 18/17 A2998 RMK A01 T01760169  RH  096%=      5-min Rain = 0
KEA1 251025Z 14013KT 18/17 A2998 RMK A01 T01760170  RH  096%=      5-min Rain = 0
KEA1 251026Z 14012KT 18/17 A2998 RMK A01 T01770170  RH  096%=      5-min Rain = 0
KEA1 251027Z 14012KT 18/17 A2998 RMK A01 T01760170  RH  096%=      5-min Rain = 0
KEA1 251028Z 14012G17KT 18/17 A2998 RMK A01 T01770170  RH  096%=      5-min Rain = 0
KEA1 251029Z 14013KT 18/17 A2998 RMK A01 T01760170  RH  096%=      5-min Rain = 0
KEA1 251030Z 14012KT 18/17 A2998 RMK A01 T01760170  RH  096%=      5-min Rain = 0
KEA1 251031Z 14010KT 18/17 A2998 RMK A01 T01760170  RH  096%=      5-min Rain = 0
KEA1 251032Z 14013KT 18/17 A2998 RMK A01 T01760169  RH  096%=      5-min Rain = 0
KEA1 251033Z 14013KT 18/17 A2998 RMK A01 T01760170  RH  096%=      5-min Rain = 0
KEA1 251034Z 14011KT 18/17 A2998 RMK A01 T01770170  RH  096%=      5-min Rain = 0
KEA1 251035Z 14011KT 18/17 A2998 RMK A01 T01760170  RH  096%=      5-min Rain = 0
KEA1 251036Z 14011KT 18/17 A2998 RMK A01 T01770170  RH  096%=      5-min Rain = 0
KEA1 251037Z 14014KT 18/17 A2998 RMK A01 T01770170  RH  096%=      5-min Rain = 0
KEA1 251038Z 14012KT 18/17 A2998 RMK A01 T01760170  RH  096%=      5-min Rain = 0
KEA1 251039Z 14011KT 18/17 A2998 RMK A01 T01760170  RH  096%=      5-min Rain = 0
KEA1 251040Z 14011KT 18/17 A2998 RMK A01 T01760170  RH  096%=      5-min Rain = 0
KEA1 251041Z 14012KT 18/17 A2998 RMK A01 T01760170  RH  096%=      5-min Rain = 0
KEA1 251042Z 14013KT 18/17 A2998 RMK A01 T01760170  RH  096%=      5-min Rain = 0
KEA1 251043Z 14011KT 18/17 A2998 RMK A01 T01770171  RH  096%=      5-min Rain = 0
KEA1 251044Z 14011KT 18/17 A2998 RMK A01 T01770171  RH  096%=      5-min Rain = 0
KEA1 251045Z 14013KT 18/17 A2998 RMK A01 T01770171  RH  096%=      5-min Rain = 0
KEA1 251046Z 14012KT 18/17 A2998 RMK A01 T01780172  RH  096%=      5-min Rain = 0
KEA1 251047Z 14012KT 18/17 A2998 RMK A01 T01780172  RH  096%=      5-min Rain = 0
KEA1 251048Z 14013KT 18/17 A2998 RMK A01 T01780172  RH  096%=      5-min Rain = 0
KEA1 251049Z 14013KT 18/17 A2999 RMK A01 T01790172  RH  096%=      5-min Rain = 0
KEA1 251050Z 14012KT 18/17 A2999 RMK A01 T01780172  RH  096%=      5-min Rain = 0
KEA1 251051Z 14009KT 18/17 A2999 RMK A01 T01790173  RH  096%=      5-min Rain = 0
KEA1 251052Z 14010KT 18/17 A2999 RMK A01 T01790172  RH  096%=      5-min Rain = 0
KEA1 251053Z 14012KT 18/17 A2999 RMK A01 T01790172  RH  096%=      5-min Rain = 0
KEA1 251054Z 14010KT 18/17 A2999 RMK A01 T01800173  RH  096%=      5-min Rain = 0
KEA1 251055Z 14013KT 18/17 A2999 RMK A01 T01800173  RH  096%=      5-min Rain = 0
KEA1 251056Z 14012KT 18/17 A2999 RMK A01 T01800173  RH  096%=      5-min Rain = 0
KEA1 251057Z 14010KT 18/17 A2999 RMK A01 T01800173  RH  096%=      5-min Rain = 0
KEA1 251058Z 15011KT 18/17 A2999 RMK A01 T01800173  RH  096%=      5-min Rain = 0
KEA1 251059Z 14013KT 18/17 A2999 RMK A01 T01800173  RH  096%=      5-min Rain = 0
KEA1 251100Z 15013KT 18/17 A2999 RMK A01 T01810174  RH  096%=      5-min Rain = 0
KEA1 251101Z 14012KT 18/17 A2999 RMK A01 T01810174  RH  096%=      5-min Rain = 0
KEA1 251102Z 14012KT 18/17 A2999 RMK A01 T01810174  RH  095%=      5-min Rain = 0
KEA1 251103Z 14013KT 18/17 A2999 RMK A01 T01810174  RH  095%=      5-min Rain = 0
KEA1 251104Z 14012KT 18/17 A2999 RMK A01 T01820174  RH  095%=      5-min Rain = 0
KEA1 251105Z 14014KT 18/17 A2999 RMK A01 T01810174  RH  095%=      5-min Rain = 0
KEA1 251106Z 14013G18KT 18/17 A2999 RMK A01 T01810174  RH  095%=      5-min Rain = 0
KEA1 251107Z 14013KT 18/17 A2999 RMK A01 T01810174  RH  095%=      5-min Rain = 0
KEA1 251108Z 14012KT 18/17 A2999 RMK A01 T01820174  RH  095%=      5-min Rain = 0
KEA1 251109Z 14011G17KT 18/17 A2999 RMK A01 T01820174  RH  095%=      5-min Rain = 0
KEA1 251110Z 15013KT 18/18 A2999 RMK A01 T01820175  RH  095%=      5-min Rain = 0
KEA1 251111Z 14013KT 18/17 A2999 RMK A01 T01820174  RH  095%=      5-min Rain = 0
KEA1 251112Z 14013KT 18/17 A2999 RMK A01 T01820174  RH  095%=      5-min Rain = 0
KEA1 251113Z 14012KT 18/18 A2999 RMK A01 T01820175  RH  095%=      5-min Rain = 0
KEA1 251114Z 15011KT 18/18 A2999 RMK A01 T01820175  RH  095%=      5-min Rain = 0
KEA1 251115Z 14011KT 18/17 A2999 RMK A01 T01820174  RH  095%=      5-min Rain = 0
KEA1 251116Z 14010KT 18/18 A2999 RMK A01 T01820175  RH  095%=      5-min Rain = 0
KEA1 251117Z 15010KT 18/18 A2999 RMK A01 T01820175  RH  095%=      5-min Rain = 0
KEA1 251118Z 14011KT 18/18 A2999 RMK A01 T01820175  RH  095%=      5-min Rain = 0
KEA1 251119Z 15012KT 18/18 A2999 RMK A01 T01820175  RH  095%=      5-min Rain = 0
KEA1 251120Z 14009KT 18/18 A2999 RMK A01 T01820175  RH  095%=      5-min Rain = 0
KEA1 251121Z 14009KT 18/18 A2999 RMK A01 T01830175  RH  095%=      5-min Rain = 0
KEA1 251122Z 14010KT 18/18 A2999 RMK A01 T01830175  RH  095%=      5-min Rain = 0
KEA1 251123Z 14011KT 18/18 A2999 RMK A01 T01830175  RH  095%=      5-min Rain = 0
KEA1 251124Z 14008KT 18/18 A2999 RMK A01 T01830175  RH  095%=      5-min Rain = 0
KEA1 251125Z 14012G17KT 18/18 A2999 RMK A01 T01830175  RH  095%=      5-min Rain = 0
KEA1 251126Z 15013KT 18/18 A2999 RMK A01 T01830175  RH  095%=      5-min Rain = 0
KEA1 251127Z 14013KT 18/18 A2999 RMK A01 T01830176  RH  095%=      5-min Rain = 0
KEA1 251128Z 14011KT 18/18 A2999 RMK A01 T01830175  RH  095%=      5-min Rain = 0
KEA1 251129Z 14011KT 18/18 A2999 RMK A01 T01830176  RH  095%=      5-min Rain = 0
KEA1 251130Z 14014KT 18/18 A2999 RMK A01 T01830176  RH  095%=      5-min Rain = 0
KEA1 251131Z 14012KT 18/18 A2999 RMK A01 T01840176  RH  095%=      5-min Rain = 0
KEA1 251132Z 14015KT 18/18 A2999 RMK A01 T01840176  RH  095%=      5-min Rain = 0
KEA1 251133Z 14013KT 18/18 A2999 RMK A01 T01840176  RH  095%=      5-min Rain = 0
KEA1 251134Z 14010KT 18/18 A2999 RMK A01 T01840176  RH  095%=      5-min Rain = 0
KEA1 251135Z 14012KT 18/18 A2999 RMK A01 T01840176  RH  095%=      5-min Rain = 0
KEA1 251136Z 14013KT 18/18 A2999 RMK A01 T01840176  RH  095%=      5-min Rain = 0
KEA1 251137Z 14011KT 18/18 A2999 RMK A01 T01840176  RH  095%=      5-min Rain = 0
KEA1 251138Z 14012KT 18/18 A2999 RMK A01 T01840176  RH  095%=      5-min Rain = 0
KEA1 251139Z 14012KT 18/18 A2999 RMK A01 T01840176  RH  095%=      5-min Rain = 0
KEA1 251140Z 14013KT 18/18 A2999 RMK A01 T01840176  RH  095%=      5-min Rain = 0
KEA1 251141Z 14010G15KT 18/18 A2999 RMK A01 T01840176  RH  095%=      5-min Rain = 0
KEA1 251142Z 14013KT 19/18 A2999 RMK A01 T01850177  RH  095%=      5-min Rain = 0
KEA1 251143Z 14013KT 19/18 A2999 RMK A01 T01850177  RH  095%=      5-min Rain = 0
KEA1 251144Z 14013KT 18/18 A2999 RMK A01 T01840176  RH  095%=      5-min Rain = 0
KEA1 251145Z 14012KT 19/18 A2999 RMK A01 T01850177  RH  095%=      5-min Rain = 0
KEA1 251146Z 14012KT 19/18 A2999 RMK A01 T01850177  RH  095%=      5-min Rain = 0
KEA1 251147Z 14011KT 19/18 A2999 RMK A01 T01850177  RH  095%=      5-min Rain = 0
KEA1 251148Z 14013KT 19/18 A2999 RMK A01 T01850177  RH  095%=      5-min Rain = 0
KEA1 251149Z 14012KT 19/18 A2999 RMK A01 T01850177  RH  095%=      5-min Rain = 0
KEA1 251150Z 14011KT 19/18 A2999 RMK A01 T01860178  RH  095%=      5-min Rain = 0
KEA1 251151Z 14011KT 19/18 A2999 RMK A01 T01850177  RH  095%=      5-min Rain = 0
KEA1 251152Z 14013KT 19/18 A2999 RMK A01 T01860178  RH  095%=      5-min Rain = 0
KEA1 251153Z 14013KT 19/18 A2999 RMK A01 T01860178  RH  095%=      5-min Rain = 0
KEA1 251154Z 14013KT 19/18 A2999 RMK A01 T01860178  RH  095%=      5-min Rain = 0
KEA1 251155Z 14014KT 19/18 A2999 RMK A01 T01860178  RH  095%=      5-min Rain = 0
KEA1 251156Z 14011KT 19/18 A2999 RMK A01 T01860178  RH  095%=      5-min Rain = 0
KEA1 251157Z 14014KT 19/18 A2999 RMK A01 T01860178  RH  095%=      5-min Rain = 0
KEA1 251158Z 14009KT 19/18 A30 RMK A01 T01860178  RH  095%=      5-min Rain = 0
KEA1 251159Z 14010KT 19/18 A2999 RMK A01 T01860178  RH  095%=      5-min Rain = 0
KEA1 251200Z 14010KT 19/18 A30 RMK A01 T01860178  RH  095%=      5-min Rain = 0
KEA1 251201Z 14011KT 19/18 A30 RMK A01 T01860178  RH  095%=      5-min Rain = 0
KEA1 251202Z 15011KT 19/18 A2999 RMK A01 T01870178  RH  095%=      5-min Rain = 0
KEA1 251203Z 15011KT 19/18 A30 RMK A01 T01870178  RH  095%=      5-min Rain = 0
KEA1 251204Z 14011KT 19/18 A30 RMK A01 T01870179  RH  095%=      5-min Rain = 0
KEA1 251205Z 14011KT 19/18 A30 RMK A01 T01870179  RH  095%=      5-min Rain = 0
KEA1 251206Z 14010KT 19/18 A30 RMK A01 T01870179  RH  095%=      5-min Rain = 0
KEA1 251207Z 14009KT 19/18 A30 RMK A01 T01880179  RH  095%=      5-min Rain = 0
KEA1 251208Z 15012KT 19/18 A30 RMK A01 T01880179  RH  095%=      5-min Rain = 0
KEA1 251209Z 14014KT 19/18 A30 RMK A01 T01880179  RH  095%=      5-min Rain = 0
KEA1 251210Z 15011KT 19/18 A30 RMK A01 T01880179  RH  095%=      5-min Rain = 0
KEA1 251211Z 15012KT 19/18 A30 RMK A01 T01890180  RH  094%=      5-min Rain = 0
KEA1 251212Z 14011G16KT 19/18 A30 RMK A01 T01890179  RH  094%=      5-min Rain = 0
KEA1 251213Z 15014KT 19/18 A30 RMK A01 T01890180  RH  094%=      5-min Rain = 0
KEA1 251214Z 15014KT 19/18 A30 RMK A01 T01890179  RH  094%=      5-min Rain = 0
KEA1 251215Z 14013G19KT 19/18 A30 RMK A01 T01890179  RH  094%=      5-min Rain = 0
KEA1 251216Z 15014G19KT 19/18 A30 RMK A01 T01890180  RH  094%=      5-min Rain = 0
KEA1 251217Z 15014KT 19/18 A30 RMK A01 T01890180  RH  094%=      5-min Rain = 0
KEA1 251218Z 15012KT 19/18 A30 RMK A01 T01890180  RH  094%=      5-min Rain = 0
KEA1 251219Z 15009KT 19/18 A30 RMK A01 T01890180  RH  094%=      5-min Rain = 0
KEA1 251220Z 15011KT 19/18 A30 RMK A01 T01890180  RH  094%=      5-min Rain = 0
KEA1 251221Z 14012G17KT 19/18 A30 RMK A01 T01890180  RH  094%=      5-min Rain = 0
KEA1 251222Z 14015KT 19/18 A30 RMK A01 T01890180  RH  094%=      5-min Rain = 0
KEA1 251223Z 14014KT 19/18 A30 RMK A01 T01890180  RH  094%=      5-min Rain = 0
KEA1 251224Z 14012KT 19/18 A30 RMK A01 T01890180  RH  094%=      5-min Rain = 0
KEA1 251225Z 15014KT 19/18 A30 RMK A01 T01890180  RH  094%=      5-min Rain = 0
KEA1 251226Z 15013KT 19/18 A3001 RMK A01 T01890180  RH  094%=      5-min Rain = 0
KEA1 251227Z 15014KT 19/18 A3001 RMK A01 T01890180  RH  094%=      5-min Rain = 0
KEA1 251228Z 15014KT 19/18 A3001 RMK A01 T01890180  RH  094%=      5-min Rain = 0
KEA1 251229Z 15013KT 19/18 A3001 RMK A01 T01900180  RH  094%=      5-min Rain = 0
KEA1 251230Z 14013KT 19/18 A3001 RMK A01 T01900180  RH  094%=      5-min Rain = 0
KEA1 251231Z 15013KT 19/18 A3001 RMK A01 T01890180  RH  094%=      5-min Rain = 0
KEA1 251232Z 15013KT 19/18 A3001 RMK A01 T01900181  RH  094%=      5-min Rain = 0
KEA1 251233Z 15013KT 19/18 A3001 RMK A01 T01900181  RH  094%=      5-min Rain = 0
KEA1 251234Z 15012KT 19/18 A3001 RMK A01 T01900181  RH  094%=      5-min Rain = 0
KEA1 251235Z 15013KT 19/18 A3001 RMK A01 T01900181  RH  094%=      5-min Rain = 0
KEA1 251236Z 15015KT 19/18 A3001 RMK A01 T01900181  RH  094%=      5-min Rain = 0
KEA1 251237Z 15014KT 19/18 A3001 RMK A01 T01910181  RH  094%=      5-min Rain = 0
KEA1 251238Z 15011KT 19/18 A3001 RMK A01 T01900181  RH  094%=      5-min Rain = 0
KEA1 251239Z 15010KT 19/18 A3001 RMK A01 T01900181  RH  094%=      5-min Rain = 0
KEA1 251240Z 15010KT 19/18 A3001 RMK A01 T01910182  RH  094%=      5-min Rain = 0
KEA1 251241Z 14012KT 19/18 A3001 RMK A01 T01910182  RH  094%=      5-min Rain = 0
KEA1 251242Z 15012KT 19/18 A3001 RMK A01 T01910181  RH  094%=      5-min Rain = 0
KEA1 251243Z 15012KT 19/18 A3001 RMK A01 T01910181  RH  094%=      5-min Rain = 0
KEA1 251244Z 15012KT 19/18 A3001 RMK A01 T01910182  RH  094%=      5-min Rain = 0
KEA1 251245Z 15012KT 19/18 A3001 RMK A01 T01920182  RH  094%=      5-min Rain = 0
KEA1 251246Z 16009KT 19/18 A3001 RMK A01 T01920182  RH  094%=      5-min Rain = 0
KEA1 251247Z 15012KT 19/18 A3001 RMK A01 T01920182  RH  094%=      5-min Rain = 0
KEA1 251248Z 15013G19KT 19/18 A3001 RMK A01 T01920182  RH  094%=      5-min Rain = 0
KEA1 251249Z 15014KT 19/18 A3001 RMK A01 T01920182  RH  094%=      5-min Rain = 0
KEA1 251250Z 15011KT 19/18 A3001 RMK A01 T01920182  RH  094%=      5-min Rain = 0
KEA1 251251Z 15013KT 19/18 A3001 RMK A01 T01920182  RH  094%=      5-min Rain = 0
KEA1 251252Z 14013KT 19/18 A3001 RMK A01 T01920182  RH  094%=      5-min Rain = 0
KEA1 251253Z 15011KT 19/18 A3001 RMK A01 T01930183  RH  094%=      5-min Rain = 0
KEA1 251254Z 14010KT 19/18 A3002 RMK A01 T01930182  RH  094%=      5-min Rain = 0
KEA1 251255Z 15011KT 19/18 A3002 RMK A01 T01930183  RH  094%=      5-min Rain = 0
KEA1 251256Z 15010KT 19/18 A3002 RMK A01 T01930183  RH  094%=      5-min Rain = 0
KEA1 251257Z 15012KT 19/18 A3002 RMK A01 T01940183  RH  094%=      5-min Rain = 0
KEA1 251258Z 15014KT 19/18 A3002 RMK A01 T01940183  RH  093%=      5-min Rain = 0
KEA1 251259Z 15013KT 19/18 A3002 RMK A01 T01940183  RH  093%=      5-min Rain = 0
KEA1 251300Z 15011KT 19/18 A3002 RMK A01 T01940183  RH  093%=      5-min Rain = 0
KEA1 251301Z 15012KT 19/18 A3002 RMK A01 T01940183  RH  093%=      5-min Rain = 0
KEA1 251302Z 15014KT 19/18 A3002 RMK A01 T01940183  RH  093%=      5-min Rain = 0
KEA1 251303Z 15012KT 19/18 A3002 RMK A01 T01940183  RH  093%=      5-min Rain = 0
KEA1 251304Z 15012KT 19/18 A3002 RMK A01 T01940183  RH  093%=      5-min Rain = 0
KEA1 251305Z 14014KT 20/18 A3002 RMK A01 T01950184  RH  093%=      5-min Rain = 0
KEA1 251306Z 15012KT 20/18 A3002 RMK A01 T01950184  RH  093%=      5-min Rain = 0
KEA1 251307Z 15011KT 20/18 A3002 RMK A01 T01950184  RH  093%=      5-min Rain = 0
KEA1 251308Z 14012KT 20/18 A3002 RMK A01 T01950184  RH  093%=      5-min Rain = 0
KEA1 251309Z 15012KT 20/18 A3002 RMK A01 T01950184  RH  093%=      5-min Rain = 0
KEA1 251310Z 15012KT 20/18 A3002 RMK A01 T01950184  RH  093%=      5-min Rain = 0
KEA1 251311Z 15011G18KT 20/18 A3002 RMK A01 T01960184  RH  093%=      5-min Rain = 0
KEA1 251312Z 15014KT 20/18 A3002 RMK A01 T01950184  RH  093%=      5-min Rain = 0
KEA1 251313Z 15012KT 20/18 A3002 RMK A01 T01960184  RH  093%=      5-min Rain = 0
KEA1 251314Z 15013KT 20/18 A3002 RMK A01 T01960184  RH  093%=      5-min Rain = 0
KEA1 251315Z 15011KT 20/18 A3002 RMK A01 T01960184  RH  093%=      5-min Rain = 0
KEA1 251316Z 14013KT 20/18 A3002 RMK A01 T01960184  RH  093%=      5-min Rain = 0
KEA1 251317Z 15014KT 20/18 A3002 RMK A01 T01960184  RH  093%=      5-min Rain = 0
KEA1 251318Z 15014KT 20/18 A3002 RMK A01 T01960184  RH  093%=      5-min Rain = 0
KEA1 251319Z 15014KT 20/18 A3002 RMK A01 T01960184  RH  093%=      5-min Rain = 0
KEA1 251320Z 15012KT 20/18 A3002 RMK A01 T01960184  RH  093%=      5-min Rain = 0
KEA1 251321Z 15015KT 20/18 A3002 RMK A01 T01960184  RH  093%=      5-min Rain = 0
KEA1 251322Z 15016KT 20/19 A3002 RMK A01 T01970185  RH  093%=      5-min Rain = 0
KEA1 251323Z 15014KT 20/18 A3002 RMK A01 T01960184  RH  093%=      5-min Rain = 0
KEA1 251324Z 14015KT 20/19 A3002 RMK A01 T01970185  RH  093%=      5-min Rain = 0
KEA1 251325Z 15013KT 20/19 A3002 RMK A01 T01960185  RH  093%=      5-min Rain = 0
KEA1 251326Z 15015KT 20/19 A3002 RMK A01 T01970185  RH  093%=      5-min Rain = 0
KEA1 251327Z 15013KT 20/19 A3002 RMK A01 T01980185  RH  093%=      5-min Rain = 0
KEA1 251328Z 15015KT 20/19 A3002 RMK A01 T01970185  RH  093%=      5-min Rain = 0
KEA1 251329Z 15014KT 20/19 A3002 RMK A01 T01980185  RH  092%=      5-min Rain = 0
KEA1 251330Z 15013KT 20/19 A3002 RMK A01 T01980185  RH  093%=      5-min Rain = 0
KEA1 251331Z 14013KT 20/19 A3002 RMK A01 T01980185  RH  092%=      5-min Rain = 0
KEA1 251332Z 15015KT 20/19 A3002 RMK A01 T01980185  RH  092%=      5-min Rain = 0
KEA1 251333Z 15013KT 20/19 A3002 RMK A01 T01980186  RH  092%=      5-min Rain = 0
KEA1 251334Z 15013G18KT 20/19 A3002 RMK A01 T01990186  RH  092%=      5-min Rain = 0
KEA1 251335Z 15012G17KT 20/19 A3002 RMK A01 T01990186  RH  092%=      5-min Rain = 0
KEA1 251336Z 15014KT 20/19 A3002 RMK A01 T01990186  RH  092%=      5-min Rain = 0
KEA1 251337Z 14013KT 20/19 A3002 RMK A01 T02000186  RH  092%=      5-min Rain = 0
KEA1 251338Z 14013KT 20/19 A3002 RMK A01 T02000186  RH  092%=      5-min Rain = 0
KEA1 251339Z 14015KT 20/19 A3002 RMK A01 T02000186  RH  092%=      5-min Rain = 0
KEA1 251340Z 15014KT 20/19 A3002 RMK A01 T02000186  RH  092%=      5-min Rain = 0
KEA1 251341Z 15015KT 20/19 A3002 RMK A01 T02000186  RH  092%=      5-min Rain = 0
KEA1 251342Z 14014KT 20/19 A3002 RMK A01 T02000186  RH  091%=      5-min Rain = 0
KEA1 251343Z 14014KT 20/19 A3002 RMK A01 T02010186  RH  091%=      5-min Rain = 0
KEA1 251344Z 15014KT 20/19 A3002 RMK A01 T02010186  RH  091%=      5-min Rain = 0
KEA1 251345Z 14015KT 20/19 A3002 RMK A01 T02010186  RH  091%=      5-min Rain = 0
KEA1 251346Z 15014KT 20/19 A3002 RMK A01 T02010186  RH  091%=      5-min Rain = 0
KEA1 251347Z 15016KT 20/19 A3003 RMK A01 T02010186  RH  091%=      5-min Rain = 0
KEA1 251348Z 15015KT 20/19 A3002 RMK A01 T02010186  RH  091%=      5-min Rain = 0
KEA1 251349Z 15013KT 20/19 A3003 RMK A01 T02020187  RH  091%=      5-min Rain = 0
KEA1 251350Z 14012KT 20/19 A3003 RMK A01 T02020187  RH  091%=      5-min Rain = 0
KEA1 251351Z 15015KT 20/19 A3003 RMK A01 T02030187  RH  091%=      5-min Rain = 0
KEA1 251352Z 15016KT 20/19 A3003 RMK A01 T02030187  RH  090%=      5-min Rain = 0
KEA1 251353Z 15013KT 20/19 A3003 RMK A01 T02030187  RH  090%=      5-min Rain = 0
KEA1 251354Z 15014KT 20/19 A3003 RMK A01 T02040187  RH  090%=      5-min Rain = 0
KEA1 251355Z 15015KT 20/19 A3003 RMK A01 T02040187  RH  090%=      5-min Rain = 0
KEA1 251356Z 15013KT 20/19 A3003 RMK A01 T02040187  RH  090%=      5-min Rain = 0
KEA1 251357Z 15014KT 20/19 A3003 RMK A01 T02040187  RH  090%=      5-min Rain = 0
KEA1 251358Z 15016KT 20/19 A3003 RMK A01 T02040187  RH  090%=      5-min Rain = 0
KEA1 251359Z 15014KT 20/19 A3003 RMK A01 T02040187  RH  090%=      5-min Rain = 0
KEA1 251400Z 15014KT 20/19 A3003 RMK A01 T02040187  RH  090%=      5-min Rain = 0
KEA1 251401Z 15015KT 20/19 A3003 RMK A01 T02040187  RH  090%=      5-min Rain = 0
KEA1 251402Z 15012KT 20/19 A3003 RMK A01 T02040187  RH  090%=      5-min Rain = 0
KEA1 251403Z 15012KT 20/19 A3003 RMK A01 T02040188  RH  090%=      5-min Rain = 0
KEA1 251404Z 14014KT 21/19 A3003 RMK A01 T02050188  RH  090%=      5-min Rain = 0
KEA1 251405Z 15014KT 21/19 A3003 RMK A01 T02050188  RH  090%=      5-min Rain = 0
KEA1 251406Z 15015KT 21/19 A3003 RMK A01 T02060188  RH  090%=      5-min Rain = 0
KEA1 251407Z 14014KT 21/19 A3003 RMK A01 T02060188  RH  090%=      5-min Rain = 0
KEA1 251408Z 14016KT 21/19 A3003 RMK A01 T02060188  RH  089%=      5-min Rain = 0
KEA1 251409Z 14015KT 21/19 A3003 RMK A01 T02070189  RH  089%=      5-min Rain = 0
KEA1 251410Z 15019KT 21/19 A3003 RMK A01 T02070188  RH  089%=      5-min Rain = 0
KEA1 251411Z 15015KT 21/19 A3003 RMK A01 T02070188  RH  089%=      5-min Rain = 0
KEA1 251412Z 14015KT 21/19 A3003 RMK A01 T02070189  RH  089%=      5-min Rain = 0
KEA1 251413Z 14014G20KT 21/19 A3003 RMK A01 T02070189  RH  089%=      5-min Rain = 0
KEA1 251414Z 14014KT 21/19 A3003 RMK A01 T02070189  RH  089%=      5-min Rain = 0
KEA1 251415Z 14017KT 21/19 A3003 RMK A01 T02080189  RH  089%=      5-min Rain = 0
KEA1 251416Z 14017KT 21/19 A3003 RMK A01 T02080189  RH  089%=      5-min Rain = 0
KEA1 251417Z 14014KT 21/19 A3003 RMK A01 T02080190  RH  089%=      5-min Rain = 0
KEA1 251418Z 15016KT 21/19 A3003 RMK A01 T02080189  RH  089%=      5-min Rain = 0
KEA1 251419Z 14013KT 21/19 A3003 RMK A01 T02080189  RH  089%=      5-min Rain = 0
KEA1 251420Z 14016KT 21/19 A3003 RMK A01 T02080190  RH  089%=      5-min Rain = 0
KEA1 251421Z 14018KT 21/19 A3003 RMK A01 T02090190  RH  089%=      5-min Rain = 0
KEA1 251422Z 14018KT 21/19 A3003 RMK A01 T02090189  RH  088%=      5-min Rain = 0
KEA1 251423Z 14019KT 21/19 A3003 RMK A01 T02080189  RH  089%=      5-min Rain = 0
KEA1 251424Z 14016KT 21/19 A3003 RMK A01 T02080189  RH  089%=      5-min Rain = 0
KEA1 251425Z 14018KT 21/19 A3003 RMK A01 T02090190  RH  089%=      5-min Rain = 0
KEA1 251426Z 14018KT 21/19 A3003 RMK A01 T02090189  RH  088%=      5-min Rain = 0
KEA1 251427Z 14013KT 21/19 A3003 RMK A01 T02090190  RH  089%=      5-min Rain = 0
KEA1 251428Z 14013KT 21/19 A3003 RMK A01 T02090190  RH  089%=      5-min Rain = 0
KEA1 251429Z 14011KT 21/19 A3003 RMK A01 T02100191  RH  089%=      5-min Rain = 0
KEA1 251430Z 14013KT 21/19 A3003 RMK A01 T02110191  RH  089%=      5-min Rain = 0
KEA1 251431Z 14015KT 21/19 A3003 RMK A01 T02120191  RH  088%=      5-min Rain = 0
KEA1 251432Z 14016KT 21/19 A3003 RMK A01 T02110191  RH  088%=      5-min Rain = 0
KEA1 251433Z 14015KT 21/19 A3003 RMK A01 T02100190  RH  088%=      5-min Rain = 0
KEA1 251434Z 14013G19KT 21/19 A3003 RMK A01 T02100190  RH  089%=      5-min Rain = 0
KEA1 251435Z 15018KT 21/19 A3003 RMK A01 T02100190  RH  088%=      5-min Rain = 0
KEA1 251436Z 15016KT 21/19 A3003 RMK A01 T02090190  RH  088%=      5-min Rain = 0
KEA1 251437Z 14015KT 21/19 A3003 RMK A01 T02090190  RH  089%=      5-min Rain = 0
KEA1 251438Z 14014KT 21/19 A3003 RMK A01 T02090190  RH  089%=      5-min Rain = 0
KEA1 251439Z 14017KT 21/19 A3003 RMK A01 T02090190  RH  089%=      5-min Rain = 0
KEA1 251440Z 15012KT 21/19 A3003 RMK A01 T02090190  RH  089%=      5-min Rain = 0
KEA1 251441Z 15014KT 21/19 A3003 RMK A01 T02090191  RH  089%=      5-min Rain = 0
KEA1 251442Z 15015KT 21/19 A3003 RMK A01 T02100190  RH  089%=      5-min Rain = 0
KEA1 251443Z 15013G18KT 21/19 A3003 RMK A01 T02100190  RH  088%=      5-min Rain = 0
KEA1 251444Z 15011KT 21/19 A3003 RMK A01 T02100191  RH  089%=      5-min Rain = 0
KEA1 251445Z 13013KT 21/19 A3004 RMK A01 T02110191  RH  088%=      5-min Rain = 0
KEA1 251446Z 14013KT 21/19 A3004 RMK A01 T02110191  RH  088%=      5-min Rain = 0
KEA1 251447Z 14015KT 21/19 A3003 RMK A01 T02110191  RH  088%=      5-min Rain = 0
KEA1 251448Z 14017KT 21/19 A3003 RMK A01 T02110191  RH  088%=      5-min Rain = 0
KEA1 251449Z 14017KT 21/19 A3003 RMK A01 T02100190  RH  089%=      5-min Rain = 0
KEA1 251450Z 14014KT 21/19 A3003 RMK A01 T02090190  RH  089%=      5-min Rain = 0
KEA1 251451Z 14014KT 21/19 A3003 RMK A01 T02090190  RH  089%=      5-min Rain = 0
KEA1 251452Z 14013KT 21/19 A3003 RMK A01 T02090191  RH  089%=      5-min Rain = 0
KEA1 251453Z 14013KT 21/19 A3003 RMK A01 T02090191  RH  089%=      5-min Rain = 0
KEA1 251454Z 14014KT 21/19 A3003 RMK A01 T02100191  RH  089%=      5-min Rain = 0
KEA1 251455Z 14013KT 21/19 A3003 RMK A01 T02110191  RH  089%=      5-min Rain = 0
KEA1 251456Z 14014KT 21/19 A3003 RMK A01 T02110191  RH  088%=      5-min Rain = 0
KEA1 251457Z 15013KT 21/19 A3003 RMK A01 T02110191  RH  088%=      5-min Rain = 0
KEA1 251458Z 14016KT 21/19 A3003 RMK A01 T02100191  RH  089%=      5-min Rain = 0
KEA1 251459Z 14013KT 21/19 A3003 RMK A01 T02100191  RH  089%=      5-min Rain = 0
KEA1 251500Z 14016KT 21/19 A3003 RMK A01 T02090191  RH  089%=      5-min Rain = 0
KEA1 251501Z 14014KT 21/19 A3003 RMK A01 T02090190  RH  089%=      5-min Rain = 0
KEA1 251502Z 14014KT 21/19 A3003 RMK A01 T02100191  RH  089%=      5-min Rain = 0
KEA1 251503Z 14016KT 21/19 A3003 RMK A01 T02100191  RH  089%=      5-min Rain = 0
KEA1 251504Z 14016KT 21/19 A3003 RMK A01 T02100191  RH  089%=      5-min Rain = 0
KEA1 251505Z 14015KT 21/19 A3003 RMK A01 T02100191  RH  089%=      5-min Rain = 0
KEA1 251506Z 14014KT 21/19 A3003 RMK A01 T02100191  RH  089%=      5-min Rain = 0
KEA1 251507Z 14015KT 21/19 A3003 RMK A01 T02100191  RH  089%=      5-min Rain = 0
KEA1 251508Z 14017KT 21/19 A3003 RMK A01 T02100191  RH  088%=      5-min Rain = 0
KEA1 251509Z 15017KT 21/19 A3003 RMK A01 T02100190  RH  089%=      5-min Rain = 0
KEA1 251510Z 14015KT 21/19 A3003 RMK A01 T02100191  RH  089%=      5-min Rain = 0
KEA1 251511Z 14014KT 21/19 A3003 RMK A01 T02100190  RH  089%=      5-min Rain = 0
KEA1 251512Z 14014G19KT 21/19 A3003 RMK A01 T02100191  RH  089%=      5-min Rain = 0
KEA1 251513Z 14013KT 21/19 A3003 RMK A01 T02110191  RH  089%=      5-min Rain = 0
KEA1 251514Z 14012G17KT 21/19 A3003 RMK A01 T02110191  RH  088%=      5-min Rain = 0
KEA1 251515Z 15015KT 21/19 A3003 RMK A01 T02110191  RH  088%=      5-min Rain = 0
KEA1 251516Z 15015KT 21/19 A3003 RMK A01 T02110191  RH  088%=      5-min Rain = 0
KEA1 251517Z 14013KT 21/19 A3003 RMK A01 T02110191  RH  088%=      5-min Rain = 0
KEA1 251518Z 14015KT 21/19 A3003 RMK A01 T02110191  RH  088%=      5-min Rain = 0
KEA1 251519Z 14015KT 21/19 A3003 RMK A01 T02120191  RH  088%=      5-min Rain = 0
KEA1 251520Z 15016KT 21/19 A3002 RMK A01 T02140193  RH  088%=      5-min Rain = 0
KEA1 251521Z 15016KT 22/19 A3002 RMK A01 T02150193  RH  087%=      5-min Rain = 0
KEA1 251522Z 15019KT 22/19 A3002 RMK A01 T02170193  RH  086%=      5-min Rain = 0
KEA1 251523Z 15016KT 22/19 A3002 RMK A01 T02180193  RH  086%=      5-min Rain = 0
KEA1 251524Z 14017KT 22/19 A3002 RMK A01 T02200194  RH  085%=      5-min Rain = 0
KEA1 251525Z 15018KT 22/19 A3002 RMK A01 T02220194  RH  084%=      5-min Rain = 0
KEA1 251526Z 15019KT 23/19 A3002 RMK A01 T02250194  RH  083%=      5-min Rain = 0
KEA1 251527Z 15017G22KT 23/19 A3002 RMK A01 T02250194  RH  083%=      5-min Rain = 0
KEA1 251528Z 15020KT 23/19 A3002 RMK A01 T02250193  RH  082%=      5-min Rain = 0
KEA1 251529Z 14017KT 22/19 A3002 RMK A01 T02230193  RH  083%=      5-min Rain = 0
KEA1 251530Z 15014KT 22/19 A3003 RMK A01 T02220194  RH  084%=      5-min Rain = 0
KEA1 251531Z 15014G19KT 22/19 A3003 RMK A01 T02220193  RH  083%=      5-min Rain = 0
KEA1 251532Z 14016KT 22/19 A3003 RMK A01 T02220193  RH  084%=      5-min Rain = 0
KEA1 251533Z 15015KT 22/19 A3003 RMK A01 T02210192  RH  083%=      5-min Rain = 0
KEA1 251534Z 14015KT 22/19 A3003 RMK A01 T02200192  RH  084%=      5-min Rain = 0
KEA1 251535Z 15016KT 22/19 A3003 RMK A01 T02200192  RH  084%=      5-min Rain = 0
KEA1 251536Z 14016KT 22/19 A3003 RMK A01 T02200192  RH  084%=      5-min Rain = 0
KEA1 251537Z 15016G21KT 22/19 A3003 RMK A01 T02190192  RH  085%=      5-min Rain = 0
KEA1 251538Z 15016KT 22/19 A3003 RMK A01 T02190192  RH  084%=      5-min Rain = 0
KEA1 251539Z 14016KT 22/19 A3003 RMK A01 T02190192  RH  085%=      5-min Rain = 0
KEA1 251540Z 14019KT 22/19 A3003 RMK A01 T02190192  RH  084%=      5-min Rain = 0
KEA1 251541Z 14017KT 22/19 A3003 RMK A01 T02190191  RH  085%=      5-min Rain = 0
KEA1 251542Z 14015KT 22/19 A3003 RMK A01 T02180192  RH  085%=      5-min Rain = 0
KEA1 251543Z 15017KT 22/19 A3002 RMK A01 T02190192  RH  085%=      5-min Rain = 0
KEA1 251544Z 15015KT 22/19 A3003 RMK A01 T02190192  RH  084%=      5-min Rain = 0
KEA1 251545Z 15016KT 22/19 A3003 RMK A01 T02210192  RH  084%=      5-min Rain = 0
KEA1 251546Z 14017KT 22/19 A3003 RMK A01 T02220193  RH  084%=      5-min Rain = 0
KEA1 251547Z 14015KT 22/19 A3002 RMK A01 T02230193  RH  083%=      5-min Rain = 0
KEA1 251548Z 14017KT 22/19 A3003 RMK A01 T02240192  RH  083%=      5-min Rain = 0
KEA1 251549Z 15017KT 22/19 A3003 RMK A01 T02220191  RH  083%=      5-min Rain = 0
KEA1 251550Z 14017KT 22/19 A3003 RMK A01 T02200191  RH  084%=      5-min Rain = 0
KEA1 251551Z 14015KT 22/19 A3003 RMK A01 T02200191  RH  084%=      5-min Rain = 0
KEA1 251552Z 14016KT 22/19 A3003 RMK A01 T02210191  RH  083%=      5-min Rain = 0
KEA1 251553Z 15012KT 22/19 A3003 RMK A01 T02210191  RH  083%=      5-min Rain = 0
KEA1 251554Z 14012G17KT 22/19 A3003 RMK A01 T02220193  RH  083%=      5-min Rain = 0
KEA1 251555Z 14016KT 22/19 A3003 RMK A01 T02230192  RH  082%=      5-min Rain = 0
KEA1 251556Z 14015KT 22/19 A3003 RMK A01 T02230191  RH  082%=      5-min Rain = 0
KEA1 251557Z 14016KT 22/19 A3003 RMK A01 T02220191  RH  083%=      5-min Rain = 0
KEA1 251558Z 15013KT 22/19 A3003 RMK A01 T02210191  RH  083%=      5-min Rain = 0
KEA1 251559Z 14014KT 22/19 A3003 RMK A01 T02210191  RH  083%=      5-min Rain = 0
KEA1 251600Z 15014KT 22/19 A3003 RMK A01 T02210191  RH  083%=      5-min Rain = 0
KEA1 251601Z 15014KT 22/19 A3003 RMK A01 T02210191  RH  083%=      5-min Rain = 0
KEA1 251602Z 15016KT 22/19 A3003 RMK A01 T02200190  RH  083%=      5-min Rain = 0
KEA1 251603Z 14016KT 22/19 A3003 RMK A01 T02200190  RH  083%=      5-min Rain = 0
KEA1 251604Z 14014KT 22/19 A3003 RMK A01 T02200190  RH  083%=      5-min Rain = 0
KEA1 251605Z 14014KT 22/19 A3003 RMK A01 T02200191  RH  084%=      5-min Rain = 0
KEA1 251606Z 14015G20KT 22/19 A3003 RMK A01 T02200191  RH  084%=      5-min Rain = 0
KEA1 251607Z 14017KT 22/19 A3003 RMK A01 T02200191  RH  083%=      5-min Rain = 0
KEA1 251608Z 14016KT 22/19 A3003 RMK A01 T02200190  RH  083%=      5-min Rain = 0
KEA1 251609Z 15016KT 22/19 A3003 RMK A01 T02200190  RH  083%=      5-min Rain = 0
KEA1 251610Z 15014KT 22/19 A3003 RMK A01 T02210190  RH  083%=      5-min Rain = 0
KEA1 251611Z 15013KT 22/19 A3003 RMK A01 T02210191  RH  083%=      5-min Rain = 0
KEA1 251612Z 16013KT 22/19 A3003 RMK A01 T02220192  RH  083%=      5-min Rain = 0
KEA1 251613Z 15012KT 22/19 A3003 RMK A01 T02220192  RH  083%=      5-min Rain = 0
KEA1 251614Z 14015KT 22/19 A3004 RMK A01 T02230193  RH  083%=      5-min Rain = 0
KEA1 251615Z 14015KT 22/19 A3003 RMK A01 T02230192  RH  083%=      5-min Rain = 0
KEA1 251616Z 14014KT 22/19 A3003 RMK A01 T02230193  RH  083%=      5-min Rain = 0
KEA1 251617Z 14015KT 23/19 A3003 RMK A01 T02250193  RH  082%=      5-min Rain = 0
KEA1 251618Z 14014KT 23/19 A3003 RMK A01 T02260194  RH  082%=      5-min Rain = 0
KEA1 251619Z 14015KT 23/19 A3003 RMK A01 T02260192  RH  081%=      5-min Rain = 0
KEA1 251620Z 14014KT 23/19 A3003 RMK A01 T02250193  RH  082%=      5-min Rain = 0
KEA1 251621Z 14013KT 23/19 A3003 RMK A01 T02250193  RH  082%=      5-min Rain = 0
KEA1 251622Z 14012KT 23/19 A3003 RMK A01 T02250193  RH  082%=      5-min Rain = 0
KEA1 251623Z 14011KT 23/19 A3003 RMK A01 T02250194  RH  083%=      5-min Rain = 0
KEA1 251624Z 15013KT 23/19 A3003 RMK A01 T02250193  RH  082%=      5-min Rain = 0
KEA1 251625Z 15014KT 23/19 A3003 RMK A01 T02250192  RH  082%=      5-min Rain = 0
KEA1 251626Z 14015KT 22/19 A3003 RMK A01 T02240193  RH  082%=      5-min Rain = 0
KEA1 251627Z 15014KT 22/19 A3003 RMK A01 T02230191  RH  082%=      5-min Rain = 0
KEA1 251628Z 14015KT 22/19 A3003 RMK A01 T02220192  RH  083%=      5-min Rain = 0
KEA1 251629Z 14015KT 22/19 A3003 RMK A01 T02210191  RH  083%=      5-min Rain = 0
KEA1 251630Z 14013KT 22/19 A3003 RMK A01 T02200191  RH  083%=      5-min Rain = 0
KEA1 251631Z 15011KT 22/19 A3003 RMK A01 T02200192  RH  084%=      5-min Rain = 0
KEA1 251632Z 15014KT 22/19 A3003 RMK A01 T02210192  RH  084%=      5-min Rain = 0
KEA1 251633Z 16012KT 22/19 A3003 RMK A01 T02210192  RH  084%=      5-min Rain = 0
KEA1 251634Z 14010KT 22/19 A3004 RMK A01 T02220193  RH  084%=      5-min Rain = 0
KEA1 251635Z 15014KT 22/19 A3003 RMK A01 T02230193  RH  083%=      5-min Rain = 0
KEA1 251636Z 14015KT 22/19 A3003 RMK A01 T02230193  RH  083%=      5-min Rain = 0
KEA1 251637Z 14015KT 22/19 A3003 RMK A01 T02230191  RH  082%=      5-min Rain = 0
KEA1 251638Z 13013KT 22/19 A3004 RMK A01 T02230192  RH  083%=      5-min Rain = 0
KEA1 251639Z 14015KT 22/19 A3003 RMK A01 T02230192  RH  083%=      5-min Rain = 0
KEA1 251640Z 15014KT 22/19 A3003 RMK A01 T02230192  RH  083%=      5-min Rain = 0
KEA1 251641Z 15014KT 22/19 A3003 RMK A01 T02230192  RH  083%=      5-min Rain = 0
KEA1 251642Z 15014KT 22/19 A3003 RMK A01 T02230193  RH  083%=      5-min Rain = 0
KEA1 251643Z 15013KT 22/19 A3003 RMK A01 T02240192  RH  082%=      5-min Rain = 0
KEA1 251644Z 14011KT 22/19 A3004 RMK A01 T02240193  RH  083%=      5-min Rain = 0
KEA1 251645Z 13011KT 22/19 A3004 RMK A01 T02240193  RH  082%=      5-min Rain = 0
KEA1 251646Z 14012KT 22/19 A3003 RMK A01 T02230193  RH  083%=      5-min Rain = 0
KEA1 251647Z 13014KT 22/19 A3003 RMK A01 T02230193  RH  083%=      5-min Rain = 0
KEA1 251648Z 14015KT 22/19 A3003 RMK A01 T02230193  RH  083%=      5-min Rain = 0
KEA1 251649Z 14015KT 22/19 A3003 RMK A01 T02220192  RH  083%=      5-min Rain = 0
KEA1 251650Z 13014KT 22/19 A3003 RMK A01 T02230192  RH  083%=      5-min Rain = 0
KEA1 251651Z 14016KT 22/19 A3003 RMK A01 T02230192  RH  082%=      5-min Rain = 0
KEA1 251652Z 14015KT 22/19 A3003 RMK A01 T02230192  RH  083%=      5-min Rain = 0
KEA1 251653Z 15015KT 22/19 A3003 RMK A01 T02230192  RH  083%=      5-min Rain = 0
KEA1 251654Z 14014KT 22/19 A3003 RMK A01 T02230192  RH  083%=      5-min Rain = 0
KEA1 251655Z 13013KT 22/19 A3003 RMK A01 T02220192  RH  083%=      5-min Rain = 0
KEA1 251656Z 14013KT 22/19 A3003 RMK A01 T02240194  RH  083%=      5-min Rain = 0
KEA1 251657Z 13012KT 23/20 A3003 RMK A01 T02270196  RH  083%=      5-min Rain = 0
KEA1 251658Z 14012G17KT 23/20 A3003 RMK A01 T02310199  RH  082%=      5-min Rain = 0
KEA1 251659Z 15014KT 23/20 A3003 RMK A01 T02330195  RH  079%=      5-min Rain = 0
KEA1 251700Z 14013KT 23/20 A3003 RMK A01 T02320195  RH  080%=      5-min Rain = 0
KEA1 251701Z 14014KT 23/20 A3003 RMK A01 T02300195  RH  080%=      5-min Rain = 0
KEA1 251702Z 15014KT 23/20 A3003 RMK A01 T02300195  RH  081%=      5-min Rain = 0
KEA1 251703Z 13015KT 23/19 A3003 RMK A01 T02290193  RH  080%=      5-min Rain = 0
KEA1 251704Z 13015KT 23/19 A3003 RMK A01 T02280193  RH  080%=      5-min Rain = 0
KEA1 251705Z 14013KT 23/19 A3003 RMK A01 T02280193  RH  081%=      5-min Rain = 0
KEA1 251706Z 14012KT 23/19 A3003 RMK A01 T02280194  RH  081%=      5-min Rain = 0
KEA1 251707Z 15012KT 23/19 A3003 RMK A01 T02290193  RH  080%=      5-min Rain = 0
KEA1 251708Z 14011KT 23/19 A3003 RMK A01 T02300194  RH  080%=      5-min Rain = 0
KEA1 251709Z 13013KT 23/20 A3003 RMK A01 T02310195  RH  080%=      5-min Rain = 0
KEA1 251710Z 13013KT 23/19 A3003 RMK A01 T02290194  RH  081%=      5-min Rain = 0
KEA1 251711Z 13014KT 23/19 A3003 RMK A01 T02280194  RH  081%=      5-min Rain = 0
KEA1 251712Z 14014KT 23/20 A3003 RMK A01 T02280195  RH  082%=      5-min Rain = 0
KEA1 251713Z 13013KT 23/20 A3003 RMK A01 T02290195  RH  081%=      5-min Rain = 0
KEA1 251714Z 14016KT 23/20 A3002 RMK A01 T02310195  RH  080%=      5-min Rain = 0
KEA1 251715Z 14014G19KT 23/20 A3002 RMK A01 T02330195  RH  079%=      5-min Rain = 0
KEA1 251716Z 13016KT 23/20 A3002 RMK A01 T02340196  RH  079%=      5-min Rain = 0
KEA1 251717Z 14015KT 23/20 A3002 RMK A01 T02340195  RH  079%=      5-min Rain = 0
KEA1 251718Z 13014KT 23/20 A3002 RMK A01 T02330195  RH  079%=      5-min Rain = 0
KEA1 251719Z 14013KT 23/19 A3002 RMK A01 T02330194  RH  079%=      5-min Rain = 0
KEA1 251720Z 13013KT 23/19 A3002 RMK A01 T02330194  RH  079%=      5-min Rain = 0
KEA1 251721Z 14014KT 23/19 A3002 RMK A01 T02330194  RH  079%=      5-min Rain = 0
KEA1 251722Z 13015KT 23/19 A3002 RMK A01 T02330194  RH  079%=      5-min Rain = 0
KEA1 251723Z 13014KT 23/20 A3002 RMK A01 T02310195  RH  080%=      5-min Rain = 0
KEA1 251724Z 14014KT 23/20 A3002 RMK A01 T02310195  RH  080%=      5-min Rain = 0
KEA1 251725Z 13010KT 23/20 A3002 RMK A01 T02340199  RH  080%=      5-min Rain = 0
KEA1 251726Z 13015KT 24/20 A3002 RMK A01 T02390198  RH  078%=      5-min Rain = 0
KEA1 251727Z 13013KT 24/20 A3002 RMK A01 T02390197  RH  077%=      5-min Rain = 0
KEA1 251728Z 14014KT 24/20 A3002 RMK A01 T02390196  RH  077%=      5-min Rain = 0
KEA1 251729Z 14015KT 24/20 A3002 RMK A01 T02380195  RH  077%=      5-min Rain = 0
KEA1 251730Z 13015KT 24/19 A3002 RMK A01 T02350194  RH  078%=      5-min Rain = 0
KEA1 251731Z 13016KT 23/19 A3002 RMK A01 T02320193  RH  079%=      5-min Rain = 0
KEA1 251732Z 13016KT 23/19 A3002 RMK A01 T02290192  RH  079%=      5-min Rain = 0
KEA1 251733Z 13014KT 23/19 A3002 RMK A01 T02280192  RH  080%=      5-min Rain = 0
KEA1 251734Z 13015KT 23/19 A3002 RMK A01 T02280192  RH  080%=      5-min Rain = 0
KEA1 251735Z 13014KT 23/19 A3002 RMK A01 T02280191  RH  080%=      5-min Rain = 0
KEA1 251736Z 14014KT 23/19 A3002 RMK A01 T02280192  RH  080%=      5-min Rain = 0
KEA1 251737Z 13016KT 23/19 A3002 RMK A01 T02270192  RH  081%=      5-min Rain = 0
KEA1 251738Z 13016KT 23/19 A3002 RMK A01 T02260192  RH  081%=      5-min Rain = 0
KEA1 251739Z 13014KT 23/19 A3002 RMK A01 T02250192  RH  082%=      5-min Rain = 0
KEA1 251740Z 13015KT 23/19 A3002 RMK A01 T02250193  RH  082%=      5-min Rain = 0
KEA1 251741Z 13013KT 23/19 A3002 RMK A01 T02250193  RH  082%=      5-min Rain = 0
KEA1 251742Z 14011KT 23/19 A3002 RMK A01 T02250193  RH  082%=      5-min Rain = 0
KEA1 251743Z 13011KT 23/19 A3002 RMK A01 T02250194  RH  082%=      5-min Rain = 0
KEA1 251744Z 13011KT 23/19 A3003 RMK A01 T02250194  RH  083%=      5-min Rain = 0
KEA1 251745Z 13010KT 23/20 A3003 RMK A01 T02250195  RH  083%=      5-min Rain = 0
KEA1 251746Z 14013KT 23/19 A3003 RMK A01 T02250194  RH  083%=      5-min Rain = 0
KEA1 251747Z 14012KT 23/19 A3002 RMK A01 T02250193  RH  082%=      5-min Rain = 0
KEA1 251748Z 13011G16KT 23/19 A3002 RMK A01 T02250193  RH  082%=      5-min Rain = 0
KEA1 251749Z 13016KT 23/19 A3002 RMK A01 T02250192  RH  081%=      5-min Rain = 0
KEA1 251750Z 13016G22KT 23/19 A3002 RMK A01 T02260191  RH  081%=      5-min Rain = 0
KEA1 251751Z 14016KT 23/19 A3002 RMK A01 T02260192  RH  081%=      5-min Rain = 0
KEA1 251752Z 13017KT 23/19 A3002 RMK A01 T02250192  RH  081%=      5-min Rain = 0
KEA1 251753Z 14013G18KT 23/19 A3002 RMK A01 T02250192  RH  082%=      5-min Rain = 0
KEA1 251754Z 14016G21KT 22/19 A3002 RMK A01 T02240192  RH  082%=      5-min Rain = 0
KEA1 251755Z 14018KT 22/19 A3002 RMK A01 T02230192  RH  083%=      5-min Rain = 0
KEA1 251756Z 14019KT 22/19 A3002 RMK A01 T02220192  RH  083%=      5-min Rain = 0
KEA1 251757Z 14019KT 22/19 A3002 RMK A01 T02210191  RH  083%=      5-min Rain = 0
KEA1 251758Z 14019KT 22/19 A3002 RMK A01 T02200191  RH  083%=      5-min Rain = 0
KEA1 251759Z 14018KT 22/19 A3001 RMK A01 T02200191  RH  084%=      5-min Rain = 0
KEA1 251800Z 13017KT 22/19 A3001 RMK A01 T02200191  RH  084%=      5-min Rain = 0
KEA1 251801Z 13015KT 22/19 A3001 RMK A01 T02200191  RH  084%=      5-min Rain = 0
KEA1 251802Z 13015KT 22/19 A3001 RMK A01 T02200191  RH  084%=      5-min Rain = 0
KEA1 251803Z 13016KT 22/19 A3001 RMK A01 T02200191  RH  084%=      5-min Rain = 0
KEA1 251804Z 13018KT 22/19 A30 RMK A01 T02200191  RH  084%=      5-min Rain = 0
KEA1 251805Z 13017G22KT 22/19 A30 RMK A01 T02190192  RH  085%=      5-min Rain = 0
KEA1 251806Z 13017G22KT 22/19 A30 RMK A01 T02180193  RH  086%=      5-min Rain = 0
KEA1 251807Z 13019KT 22/19 A2999 RMK A01 T02170193  RH  087%=      5-min Rain = 0
KEA1 251808Z 13016G21KT 22/20 A2999 RMK A01 T02150195  RH  088%=      5-min Rain = 0
KEA1 251809Z 13018KT 21/19 A2999 RMK A01 T02140194  RH  089%=      5-min Rain = 0
KEA1 251810Z 13018G23KT 21/19 A30 RMK A01 T02130194  RH  089%=      5-min Rain = 0
KEA1 251811Z 13018KT 21/19 A30 RMK A01 T02130194  RH  089%=      5-min Rain = 0
KEA1 251812Z 13018KT 21/19 A2999 RMK A01 T02130194  RH  089%=      5-min Rain = 0
KEA1 251813Z 13017KT 21/19 A2999 RMK A01 T02130193  RH  088%=      5-min Rain = 0
KEA1 251814Z 13017KT 21/19 A30 RMK A01 T02130193  RH  088%=      5-min Rain = 0
KEA1 251815Z 14015KT 21/19 A30 RMK A01 T02130192  RH  088%=      5-min Rain = 0
KEA1 251816Z 14016KT 21/19 A3001 RMK A01 T02130193  RH  088%=      5-min Rain = 0
KEA1 251817Z 13016KT 21/19 A30 RMK A01 T02130193  RH  088%=      5-min Rain = 0
KEA1 251818Z 14015KT 21/19 A30 RMK A01 T02130193  RH  088%=      5-min Rain = 0
KEA1 251819Z 13014KT 21/19 A30 RMK A01 T02130193  RH  088%=      5-min Rain = 0
KEA1 251820Z 13015KT 21/19 A2999 RMK A01 T02130193  RH  088%=      5-min Rain = 0
KEA1 251821Z 13016KT 21/19 A2999 RMK A01 T02130193  RH  088%=      5-min Rain = 0
KEA1 251822Z 12017KT 21/19 A30 RMK A01 T02130193  RH  088%=      5-min Rain = 0
KEA1 251823Z 12016G22KT 21/19 A30 RMK A01 T02130193  RH  088%=      5-min Rain = 0
KEA1 251824Z 12015KT 21/19 A2999 RMK A01 T02130194  RH  089%=      5-min Rain = 0
KEA1 251825Z 11013KT 21/19 A2998 RMK A01 T02120194  RH  089%=      5-min Rain = 0
KEA1 251826Z 12011KT 21/20 A2998 RMK A01 T02120195  RH  090%=      5-min Rain = 0
KEA1 251827Z 12011KT 21/20 A2998 RMK A01 T02110195  RH  090%=      5-min Rain = 0
KEA1 251828Z 12016KT 21/20 A2998 RMK A01 T02100195  RH  091%=      5-min Rain = 0
KEA1 251829Z 12021G26KT 21/19 A2997 RMK A01 T02100194  RH  091%=      5-min Rain = 0
KEA1 251830Z 12019KT 21/19 A2997 RMK A01 T02090193  RH  090%=      5-min Rain = 0
KEA1 251831Z 11019G26KT 21/19 A2996 RMK A01 T02090193  RH  091%=      5-min Rain = 0
KEA1 251832Z 12025G31KT 21/19 A2996 RMK A01 T02080193  RH  091%=      5-min Rain = 0
KEA1 251833Z 13026KT 21/19 A2997 RMK A01 T02080193  RH  091%=      5-min Rain = 0
KEA1 251834Z 13027G32KT 21/19 A2996 RMK A01 T02080193  RH  091%=      5-min Rain = 0
KEA1 251835Z 13027G32KT 21/19 A2996 RMK A01 T02080193  RH  091%=      5-min Rain = 0
KEA1 251836Z 13022KT 21/19 A2996 RMK A01 T02070193  RH  091%=      5-min Rain = 0
KEA1 251837Z 13025KT 21/19 A2996 RMK A01 T02070193  RH  092%=      5-min Rain = 0
KEA1 251838Z 12023G29KT 21/19 A2996 RMK A01 T02070193  RH  092%=      5-min Rain = 0
KEA1 251839Z 12025G30KT 21/19 A2996 RMK A01 T02070193  RH  092%=      5-min Rain = 0
KEA1 251840Z 13024G30KT 21/19 A2996 RMK A01 T02070193  RH  092%=      5-min Rain = 0
KEA1 251841Z 12025G33KT 21/19 A2996 RMK A01 T02070194  RH  092%=      5-min Rain = 0
KEA1 251842Z 12024G29KT 21/19 A2996 RMK A01 T02070193  RH  092%=      5-min Rain = 0
KEA1 251843Z 13028KT 21/19 A2997 RMK A01 T02060193  RH  092%=      5-min Rain = 0
KEA1 251844Z 13024G29KT 21/19 A2998 RMK A01 T02070193  RH  092%=      5-min Rain = 0
KEA1 251845Z 13024KT 21/19 A2998 RMK A01 T02070193  RH  092%=      5-min Rain = 0
KEA1 251846Z 13022KT 21/19 A2998 RMK A01 T02070193  RH  092%=      5-min Rain = 0
KEA1 251847Z 14021KT 21/19 A2998 RMK A01 T02060194  RH  092%=      5-min Rain = 0
KEA1 251848Z 13025KT 21/19 A2998 RMK A01 T02060194  RH  093%=      5-min Rain = 0
KEA1 251849Z 13023G30KT 21/19 A2997 RMK A01 T02050193  RH  093%=      5-min Rain = 0
KEA1 251850Z 13024KT 21/19 A2997 RMK A01 T02050193  RH  093%=      5-min Rain = 0
KEA1 251851Z 12023G29KT 21/19 A2996 RMK A01 T02050193  RH  093%=      5-min Rain = 0
KEA1 251852Z 12022KT 20/19 A2996 RMK A01 T02040193  RH  093%=      5-min Rain = 0
KEA1 251853Z 12017G23KT 20/19 A2996 RMK A01 T02040193  RH  093%=      5-min Rain = 0
KEA1 251854Z 12020KT 20/19 A2996 RMK A01 T02040193  RH  093%=      5-min Rain = 0
KEA1 251855Z 13015KT 20/19 A2996 RMK A01 T02040193  RH  094%=      5-min Rain = 0
KEA1 251856Z 14021G29KT 20/19 A2997 RMK A01 T02040194  RH  094%=      5-min Rain = 0
KEA1 251857Z 13026KT 20/19 A2997 RMK A01 T02040193  RH  093%=      5-min Rain = 0
KEA1 251858Z 13021KT 20/19 A2997 RMK A01 T02040193  RH  094%=      5-min Rain = 0
KEA1 251859Z 13020G27KT 20/19 A2998 RMK A01 T02040194  RH  094%=      5-min Rain = 0
KEA1 251900Z 13020G25KT 20/19 A2998 RMK A01 T02040194  RH  094%=      5-min Rain = 0
KEA1 251901Z 12021KT 20/19 A2997 RMK A01 T02040194  RH  094%=      5-min Rain = 0
KEA1 251902Z 12020KT 20/20 A2996 RMK A01 T02040195  RH  095%=      5-min Rain = 0
KEA1 251903Z 11018KT 20/20 A2995 RMK A01 T02040196  RH  095%=      5-min Rain = 0
KEA1 251904Z 11018G23KT 20/20 A2995 RMK A01 T02030195  RH  095%=      5-min Rain = 0
KEA1 251905Z 11018KT 20/20 A2995 RMK A01 T02030196  RH  095%=      5-min Rain = 0
KEA1 251906Z 11020KT 20/20 A2995 RMK A01 T02030196  RH  096%=      5-min Rain = 0
KEA1 251907Z 11017G22KT 20/20 A2995 RMK A01 T02030196  RH  096%=      5-min Rain = 0
KEA1 251908Z 11014KT 20/20 A2994 RMK A01 T02030196  RH  096%=      5-min Rain = 0
KEA1 251909Z 11019KT 20/20 A2995 RMK A01 T02030196  RH  096%=      5-min Rain = 0
KEA1 251910Z 12017KT 20/20 A2995 RMK A01 T02020196  RH  096%=      5-min Rain = 0
KEA1 251911Z 12017KT 20/20 A2995 RMK A01 T02030196  RH  096%=      5-min Rain = 0
KEA1 251912Z 12019KT 20/20 A2995 RMK A01 T02030196  RH  096%=      5-min Rain = 0.01
KEA1 251913Z 12016G21KT 20/20 A2995 RMK A01 T02020196  RH  096%=      5-min Rain = 0
KEA1 251914Z 13018KT 20/20 A2995 RMK A01 T02030197  RH  096%=      5-min Rain = 0
KEA1 251915Z 13017KT 20/20 A2996 RMK A01 T02030197  RH  096%=      5-min Rain = 0
KEA1 251916Z 13021KT 20/20 A2996 RMK A01 T02040197  RH  096%=      5-min Rain = 0
KEA1 251917Z 13017G22KT 20/20 A2996 RMK A01 T02040197  RH  096%=      5-min Rain = 0
KEA1 251918Z 13018KT 20/20 A2997 RMK A01 T02040198  RH  096%=      5-min Rain = 0
KEA1 251919Z 13021KT 20/20 A2996 RMK A01 T02040198  RH  096%=      5-min Rain = 0
KEA1 251920Z 12019G27KT 20/20 A2996 RMK A01 T02040197  RH  096%=      5-min Rain = 0
KEA1 251921Z 12018G23KT 20/20 A2996 RMK A01 T02040197  RH  096%=      5-min Rain = 0
KEA1 251922Z 12020KT 20/20 A2997 RMK A01 T02030197  RH  096%=      5-min Rain = 0
KEA1 251923Z 12017KT 20/20 A2997 RMK A01 T02030197  RH  096%=      5-min Rain = 0
KEA1 251924Z 11013G20KT 20/20 A2997 RMK A01 T02030197  RH  096%=      5-min Rain = 0
KEA1 251925Z 12022G27KT 20/20 A2997 RMK A01 T02040197  RH  096%=      5-min Rain = 0
KEA1 251926Z 12021KT 20/20 A2997 RMK A01 T02040197  RH  096%=      5-min Rain = 0
KEA1 251927Z 13021G27KT 20/20 A2998 RMK A01 T02030196  RH  096%=      5-min Rain = 0
KEA1 251928Z 13019KT 20/20 A2998 RMK A01 T02030195  RH  095%=      5-min Rain = 0
KEA1 251929Z 13018G24KT 20/19 A2998 RMK A01 T02030194  RH  095%=      5-min Rain = 0
KEA1 251930Z 13020KT 20/19 A2997 RMK A01 T02020191  RH  094%=      5-min Rain = 0
KEA1 251931Z 13019KT 20/19 A2997 RMK A01 T01990186  RH  092%=      5-min Rain = 0
KEA1 251932Z 13018KT 20/18 A2997 RMK A01 T01970182  RH  091%=      5-min Rain = 0
KEA1 251933Z 13017KT 20/18 A2996 RMK A01 T01950179  RH  090%=      5-min Rain = 0
KEA1 251934Z 13013KT 19/18 A2996 RMK A01 T01940178  RH  090%=      5-min Rain = 0
KEA1 251935Z 14011KT 19/18 A2996 RMK A01 T01940178  RH  091%=      5-min Rain = 0.01
KEA1 251936Z 16010KT 19/18 A2997 RMK A01 T01930178  RH  091%=      5-min Rain = 0
KEA1 251937Z 17012KT 19/18 A2997 RMK A01 T01930179  RH  092%=      5-min Rain = 0
KEA1 251938Z 16012KT 19/18 A2997 RMK A01 T01930179  RH  091%=      5-min Rain = 0.01
KEA1 251939Z 16012KT 19/18 A2997 RMK A01 T01930179  RH  091%=      5-min Rain = 0.02
KEA1 251940Z 16012KT 19/18 A2997 RMK A01 T01920179  RH  092%=      5-min Rain = 0.02
KEA1 251941Z 17010KT 19/18 A2996 RMK A01 T01910178  RH  092%=      5-min Rain = 0
KEA1 251942Z 18010KT 19/18 A2997 RMK A01 T01900178  RH  092%=      5-min Rain = 0
KEA1 251943Z 19010KT 19/18 A2997 RMK A01 T01900179  RH  093%=      5-min Rain = 0
KEA1 251944Z 18005KT 19/18 A2996 RMK A01 T01900179  RH  093%=      5-min Rain = 0
KEA1 251945Z 17007KT 19/18 A2996 RMK A01 T01890177  RH  093%=      5-min Rain = 0
KEA1 251946Z 17009KT 19/18 A2997 RMK A01 T01900177  RH  092%=      5-min Rain = 0
KEA1 251947Z 16009KT 19/18 A2997 RMK A01 T01900176  RH  092%=      5-min Rain = 0
KEA1 251948Z 16009KT 19/18 A2997 RMK A01 T01900176  RH  092%=      5-min Rain = 0
KEA1 251949Z 15009KT 19/18 A2996 RMK A01 T01900176  RH  091%=      5-min Rain = 0
KEA1 251950Z 15008KT 19/18 A2996 RMK A01 T01910176  RH  091%=      5-min Rain = 0
KEA1 251951Z 16011KT 19/18 A2996 RMK A01 T01920177  RH  091%=      5-min Rain = 0
KEA1 251952Z 15010KT 19/18 A2996 RMK A01 T01930178  RH  091%=      5-min Rain = 0
KEA1 251953Z 15010KT 19/18 A2996 RMK A01 T01940179  RH  091%=      5-min Rain = 0
KEA1 251954Z 15011KT 20/18 A2996 RMK A01 T01950178  RH  090%=      5-min Rain = 0
KEA1 251955Z 14011KT 20/18 A2996 RMK A01 T01970178  RH  089%=      5-min Rain = 0
KEA1 251956Z 14011KT 20/18 A2996 RMK A01 T01980179  RH  089%=      5-min Rain = 0
KEA1 251957Z 14009KT 20/18 A2996 RMK A01 T02010184  RH  090%=      5-min Rain = 0
KEA1 251958Z 14011KT 20/19 A2996 RMK A01 T02030185  RH  089%=      5-min Rain = 0
KEA1 251959Z 13008KT 21/19 A2996 RMK A01 T02050186  RH  089%=      5-min Rain = 0
KEA1 252000Z 13009KT 21/19 A2996 RMK A01 T02070185  RH  087%=      5-min Rain = 0
KEA1 252001Z 12011KT 21/18 A2996 RMK A01 T02080182  RH  085%=      5-min Rain = 0
KEA1 252002Z 11011KT 21/18 A2996 RMK A01 T02060176  RH  083%=      5-min Rain = 0
KEA1 252003Z 11010KT 20/17 A2996 RMK A01 T01990171  RH  084%=      5-min Rain = 0
KEA1 252004Z 11009KT 19/17 A2996 RMK A01 T01930170  RH  086%=      5-min Rain = 0
KEA1 252005Z 11011KT 19/17 A2996 RMK A01 T01900168  RH  087%=      5-min Rain = 0
KEA1 252006Z 11009KT 19/17 A2996 RMK A01 T01880168  RH  088%=      5-min Rain = 0
KEA1 252007Z 11008G13KT 19/17 A2997 RMK A01 T01870171  RH  090%=      5-min Rain = 0
KEA1 252008Z 11009KT 19/17 A2997 RMK A01 T01870170  RH  090%=      5-min Rain = 0
KEA1 252009Z 10009KT 19/17 A2997 RMK A01 T01870172  RH  091%=      5-min Rain = 0
KEA1 252010Z 10010KT 19/17 A2997 RMK A01 T01860171  RH  091%=      5-min Rain = 0
KEA1 252011Z 10007KT 19/17 A2996 RMK A01 T01860171  RH  091%=      5-min Rain = 0
KEA1 252012Z 10008KT 19/17 A2996 RMK A01 T01870173  RH  092%=      5-min Rain = 0
KEA1 252013Z 11009KT 19/18 A2996 RMK A01 T01880175  RH  092%=      5-min Rain = 0
KEA1 252014Z 11009KT 19/18 A2996 RMK A01 T01900176  RH  091%=      5-min Rain = 0
KEA1 252015Z 12008KT 19/18 A2996 RMK A01 T01930176  RH  090%=      5-min Rain = 0
KEA1 252016Z 11005KT 20/18 A2996 RMK A01 T01960183  RH  092%=      5-min Rain = 0
KEA1 252017Z 14006KT 20/19 A2996 RMK A01 T01990188  RH  093%=      5-min Rain = 0
KEA1 252018Z 16009KT 20/18 A2996 RMK A01 T02020182  RH  088%=      5-min Rain = 0
KEA1 252019Z 16011KT 21/18 A2996 RMK A01 T02060176  RH  083%=      5-min Rain = 0
KEA1 252020Z 17012KT 21/17 A2996 RMK A01 T02090171  RH  079%=      5-min Rain = 0
KEA1 252021Z 17012KT 21/17 A2996 RMK A01 T02100171  RH  078%=      5-min Rain = 0
KEA1 252022Z 17011KT 21/17 A2996 RMK A01 T02110170  RH  078%=      5-min Rain = 0
KEA1 252023Z 17011KT 21/17 A2996 RMK A01 T02110171  RH  078%=      5-min Rain = 0
KEA1 252024Z 16009KT 21/17 A2996 RMK A01 T02110172  RH  078%=      5-min Rain = 0
KEA1 252025Z 17011KT 21/18 A2996 RMK A01 T02120175  RH  079%=      5-min Rain = 0
KEA1 252026Z 18011KT 21/17 A2996 RMK A01 T02130173  RH  078%=      5-min Rain = 0
KEA1 252027Z 18013KT 21/17 A2996 RMK A01 T02140172  RH  077%=      5-min Rain = 0
KEA1 252028Z 19011KT 21/17 A2996 RMK A01 T02140172  RH  077%=      5-min Rain = 0
KEA1 252029Z 18010KT 21/18 A2996 RMK A01 T02140175  RH  078%=      5-min Rain = 0
KEA1 252030Z 18010KT 21/18 A2996 RMK A01 T02140178  RH  080%=      5-min Rain = 0
KEA1 252031Z 18012KT 21/18 A2996 RMK A01 T02140176  RH  079%=      5-min Rain = 0
KEA1 252032Z 18012KT 21/18 A2996 RMK A01 T02130175  RH  079%=      5-min Rain = 0
KEA1 252033Z 18011KT 21/18 A2996 RMK A01 T02130175  RH  079%=      5-min Rain = 0
KEA1 252034Z 18010KT 21/18 A2996 RMK A01 T02140177  RH  080%=      5-min Rain = 0
KEA1 252035Z 17011KT 21/18 A2996 RMK A01 T02140176  RH  079%=      5-min Rain = 0
KEA1 252036Z 17012KT 21/18 A2996 RMK A01 T02140175  RH  079%=      5-min Rain = 0
KEA1 252037Z 17010KT 21/18 A2996 RMK A01 T02140178  RH  080%=      5-min Rain = 0
KEA1 252038Z 18011KT 21/18 A2996 RMK A01 T02140178  RH  080%=      5-min Rain = 0
KEA1 252039Z 17010KT 22/18 A2996 RMK A01 T02150179  RH  080%=      5-min Rain = 0
KEA1 252040Z 17010KT 22/18 A2996 RMK A01 T02150181  RH  081%=      5-min Rain = 0
KEA1 252041Z 17009KT 22/18 A2996 RMK A01 T02160182  RH  081%=      5-min Rain = 0
KEA1 252042Z 16008KT 22/18 A2996 RMK A01 T02170184  RH  082%=      5-min Rain = 0
KEA1 252043Z 16009KT 22/19 A2996 RMK A01 T02170185  RH  082%=      5-min Rain = 0
KEA1 252044Z 16009KT 22/19 A2996 RMK A01 T02190186  RH  082%=      5-min Rain = 0
KEA1 252045Z 15010KT 22/19 A2996 RMK A01 T02210188  RH  082%=      5-min Rain = 0
KEA1 252046Z 15009KT 23/19 A2996 RMK A01 T02250190  RH  081%=      5-min Rain = 0
KEA1 252047Z 15011KT 23/19 A2996 RMK A01 T02270189  RH  079%=      5-min Rain = 0
KEA1 252048Z 16012KT 23/19 A2996 RMK A01 T02270185  RH  077%=      5-min Rain = 0
KEA1 252049Z 15012KT 23/19 A2996 RMK A01 T02280185  RH  077%=      5-min Rain = 0
KEA1 252050Z 15014KT 23/19 A2996 RMK A01 T02270185  RH  077%=      5-min Rain = 0
KEA1 252051Z 15014KT 23/18 A2996 RMK A01 T02270184  RH  077%=      5-min Rain = 0
KEA1 252052Z 15013KT 23/19 A2996 RMK A01 T02250186  RH  078%=      5-min Rain = 0.01
KEA1 252053Z 15015KT 22/19 A2996 RMK A01 T02240188  RH  080%=      5-min Rain = 0
KEA1 252054Z 14014KT 22/19 A2996 RMK A01 T02200187  RH  082%=      5-min Rain = 0
KEA1 252055Z 14015KT 22/19 A2996 RMK A01 T02170186  RH  083%=      5-min Rain = 0
KEA1 252056Z 14013KT 22/19 A2996 RMK A01 T02150188  RH  085%=      5-min Rain = 0
KEA1 252057Z 14016KT 21/19 A2996 RMK A01 T02130188  RH  086%=      5-min Rain = 0.01
KEA1 252058Z 13015KT 21/19 A2996 RMK A01 T02110187  RH  086%=      5-min Rain = 0
KEA1 252059Z 13015KT 21/19 A2995 RMK A01 T02100186  RH  086%=      5-min Rain = 0
KEA1 252100Z 13014KT 21/19 A2995 RMK A01 T02090187  RH  088%=      5-min Rain = 0
KEA1 252101Z 13016KT 21/19 A2995 RMK A01 T02080187  RH  088%=      5-min Rain = 0
KEA1 252102Z 12017KT 21/19 A2995 RMK A01 T02070185  RH  087%=      5-min Rain = 0
KEA1 252103Z 13015KT 21/19 A2996 RMK A01 T02060187  RH  089%=      5-min Rain = 0
KEA1 252104Z 14015KT 21/19 A2996 RMK A01 T02070189  RH  090%=      5-min Rain = 0
KEA1 252105Z 14017KT 21/19 A2996 RMK A01 T02070187  RH  088%=      5-min Rain = 0
KEA1 252106Z 14016KT 21/19 A2996 RMK A01 T02080189  RH  089%=      5-min Rain = 0
KEA1 252107Z 14015KT 21/19 A2996 RMK A01 T02090193  RH  090%=      5-min Rain = 0
KEA1 252108Z 15014KT 21/19 A2996 RMK A01 T02110194  RH  090%=      5-min Rain = 0
KEA1 252109Z 16009KT 21/19 A2996 RMK A01 T02120190  RH  088%=      5-min Rain = 0
KEA1 252110Z 16008KT 21/18 A2995 RMK A01 T02090183  RH  085%=      5-min Rain = 0
KEA1 252111Z 17006G11KT 21/18 A2994 RMK A01 T02060177  RH  084%=      5-min Rain = 0
KEA1 252112Z 16011KT 20/17 A2994 RMK A01 T02040169  RH  080%=      5-min Rain = 0
KEA1 252113Z 16010KT 20/17 A2994 RMK A01 T02040171  RH  081%=      5-min Rain = 0
KEA1 252114Z 14008KT 20/17 A2994 RMK A01 T02030172  RH  082%=      5-min Rain = 0
KEA1 252115Z 13009KT 20/18 A2994 RMK A01 T02020176  RH  085%=      5-min Rain = 0
KEA1 252116Z 12008KT 20/18 A2994 RMK A01 T02010177  RH  086%=      5-min Rain = 0
KEA1 252117Z 12009KT 20/17 A2993 RMK A01 T02010174  RH  084%=      5-min Rain = 0
KEA1 252118Z 13009KT 20/18 A2993 RMK A01 T02020176  RH  085%=      5-min Rain = 0
KEA1 252119Z 13009KT 20/18 A2993 RMK A01 T02030179  RH  086%=      5-min Rain = 0
KEA1 252120Z 12011KT 20/19 A2993 RMK A01 T02040185  RH  089%=      5-min Rain = 0
KEA1 252121Z 12011KT 20/19 A2993 RMK A01 T02040187  RH  090%=      5-min Rain = 0
KEA1 252122Z 12014KT 20/19 A2993 RMK A01 T02040186  RH  090%=      5-min Rain = 0
KEA1 252123Z 12015KT 20/19 A2994 RMK A01 T02040187  RH  090%=      5-min Rain = 0
KEA1 252124Z 12015KT 20/19 A2994 RMK A01 T02030186  RH  090%=      5-min Rain = 0
KEA1 252125Z 12014KT 20/19 A2994 RMK A01 T02030186  RH  090%=      5-min Rain = 0
KEA1 252126Z 12014KT 20/19 A2994 RMK A01 T02030187  RH  090%=      5-min Rain = 0
KEA1 252127Z 12013KT 20/19 A2994 RMK A01 T02030187  RH  090%=      5-min Rain = 0
KEA1 252128Z 11012KT 20/19 A2994 RMK A01 T02040188  RH  090%=      5-min Rain = 0
KEA1 252129Z 11009KT 21/19 A2993 RMK A01 T02060190  RH  091%=      5-min Rain = 0
KEA1 252130Z 11011KT 21/19 A2993 RMK A01 T02070192  RH  091%=      5-min Rain = 0
KEA1 252131Z 10010KT 21/19 A2993 RMK A01 T02100194  RH  091%=      5-min Rain = 0
KEA1 252132Z 11011KT 21/19 A2994 RMK A01 T02110193  RH  090%=      5-min Rain = 0
KEA1 252133Z 12012KT 21/19 A2994 RMK A01 T02110192  RH  089%=      5-min Rain = 0
KEA1 252134Z 13011KT 21/19 A2994 RMK A01 T02090188  RH  088%=      5-min Rain = 0
KEA1 252135Z 13009KT 21/19 A2994 RMK A01 T02080188  RH  089%=      5-min Rain = 0
KEA1 252136Z 12009KT 21/19 A2994 RMK A01 T02070187  RH  089%=      5-min Rain = 0
KEA1 252137Z 12011KT 21/19 A2994 RMK A01 T02060186  RH  088%=      5-min Rain = 0
KEA1 252138Z 12011KT 21/18 A2994 RMK A01 T02060184  RH  087%=      5-min Rain = 0
KEA1 252139Z 12010KT 21/19 A2994 RMK A01 T02060185  RH  087%=      5-min Rain = 0
KEA1 252140Z 12009KT 21/19 A2993 RMK A01 T02060186  RH  088%=      5-min Rain = 0
KEA1 252141Z 12009KT 21/19 A2993 RMK A01 T02060187  RH  089%=      5-min Rain = 0
KEA1 252142Z 12010KT 21/19 A2993 RMK A01 T02060188  RH  089%=      5-min Rain = 0
KEA1 252143Z 13010KT 21/19 A2993 RMK A01 T02070187  RH  088%=      5-min Rain = 0
KEA1 252144Z 13012KT 21/19 A2993 RMK A01 T02080187  RH  088%=      5-min Rain = 0
KEA1 252145Z 13013KT 21/19 A2993 RMK A01 T02080186  RH  087%=      5-min Rain = 0
KEA1 252146Z 13012KT 21/19 A2993 RMK A01 T02090188  RH  088%=      5-min Rain = 0
KEA1 252147Z 12012KT 21/19 A2992 RMK A01 T02100189  RH  088%=      5-min Rain = 0
KEA1 252148Z 12011KT 21/19 A2992 RMK A01 T02100189  RH  088%=      5-min Rain = 0
KEA1 252149Z 12014KT 21/19 A2992 RMK A01 T02110187  RH  086%=      5-min Rain = 0
KEA1 252150Z 12016KT 21/19 A2991 RMK A01 T02120185  RH  084%=      5-min Rain = 0
KEA1 252151Z 12014KT 21/19 A2991 RMK A01 T02120185  RH  084%=      5-min Rain = 0
KEA1 252152Z 12013KT 21/18 A2991 RMK A01 T02120184  RH  084%=      5-min Rain = 0
KEA1 252153Z 12015KT 21/19 A2991 RMK A01 T02110185  RH  085%=      5-min Rain = 0
KEA1 252154Z 12014KT 21/19 A2992 RMK A01 T02110185  RH  085%=      5-min Rain = 0
KEA1 252155Z 12015KT 21/19 A2992 RMK A01 T02100185  RH  086%=      5-min Rain = 0
KEA1 252156Z 12014KT 21/18 A2992 RMK A01 T02100184  RH  085%=      5-min Rain = 0
KEA1 252157Z 12010KT 21/18 A2992 RMK A01 T02100184  RH  085%=      5-min Rain = 0
KEA1 252158Z 11011KT 21/18 A2992 RMK A01 T02090184  RH  086%=      5-min Rain = 0
KEA1 252159Z 11009KT 21/18 A2992 RMK A01 T02090184  RH  085%=      5-min Rain = 0
KEA1 252200Z 12011KT 21/19 A2992 RMK A01 T02090185  RH  086%=      5-min Rain = 0
KEA1 252201Z 11010KT 21/19 A2992 RMK A01 T02090185  RH  086%=      5-min Rain = 0
KEA1 252202Z 11012KT 21/18 A2992 RMK A01 T02090184  RH  085%=      5-min Rain = 0
KEA1 252203Z 11011KT 21/18 A2992 RMK A01 T02090182  RH  085%=      5-min Rain = 0
KEA1 252204Z 11011KT 21/18 A2993 RMK A01 T02090183  RH  085%=      5-min Rain = 0
KEA1 252205Z 12011KT 21/19 A2993 RMK A01 T02100186  RH  086%=      5-min Rain = 0
KEA1 252206Z 12014KT 21/19 A2993 RMK A01 T02110187  RH  086%=      5-min Rain = 0
KEA1 252207Z 12013KT 21/19 A2993 RMK A01 T02110185  RH  085%=      5-min Rain = 0
KEA1 252208Z 12013KT 21/18 A2992 RMK A01 T02110184  RH  085%=      5-min Rain = 0
KEA1 252209Z 12012KT 21/18 A2992 RMK A01 T02100183  RH  084%=      5-min Rain = 0
KEA1 252210Z 12011KT 21/19 A2992 RMK A01 T02100185  RH  085%=      5-min Rain = 0
KEA1 252211Z 12011KT 21/19 A2993 RMK A01 T02100186  RH  086%=      5-min Rain = 0
KEA1 252212Z 12012KT 21/19 A2993 RMK A01 T02100185  RH  086%=      5-min Rain = 0
KEA1 252213Z 12012KT 21/19 A2993 RMK A01 T02100185  RH  085%=      5-min Rain = 0
KEA1 252214Z 11011KT 21/19 A2993 RMK A01 T02110186  RH  086%=      5-min Rain = 0
KEA1 252215Z 11008KT 21/19 A2993 RMK A01 T02100186  RH  086%=      5-min Rain = 0
KEA1 252216Z 11009KT 21/19 A2993 RMK A01 T02100187  RH  087%=      5-min Rain = 0
KEA1 252217Z 11007KT 21/19 A2993 RMK A01 T02100187  RH  086%=      5-min Rain = 0
KEA1 252218Z 09006KT 21/19 A2993 RMK A01 T02110186  RH  086%=      5-min Rain = 0
KEA1 252219Z 09007KT 21/19 A2993 RMK A01 T02110185  RH  085%=      5-min Rain = 0
KEA1 252220Z 09004KT 21/18 A2993 RMK A01 T02110184  RH  085%=      5-min Rain = 0
KEA1 252221Z 06005KT 21/19 A2994 RMK A01 T02110186  RH  086%=      5-min Rain = 0
KEA1 252222Z 06002KT 21/18 A2994 RMK A01 T02110184  RH  084%=      5-min Rain = 0
KEA1 252223Z 04002KT 21/18 A2994 RMK A01 T02120182  RH  083%=      5-min Rain = 0
KEA1 252224Z 35005KT 21/19 A2994 RMK A01 T02120185  RH  084%=      5-min Rain = 0
KEA1 252225Z 02006KT 21/18 A2995 RMK A01 T02120183  RH  083%=      5-min Rain = 0
KEA1 252226Z 03004KT 21/18 A2995 RMK A01 T02120184  RH  084%=      5-min Rain = 0
KEA1 252227Z 05004KT 21/18 A2995 RMK A01 T02120184  RH  084%=      5-min Rain = 0
KEA1 252228Z 06004KT 21/18 A2995 RMK A01 T02110181  RH  083%=      5-min Rain = 0
KEA1 252229Z 06005KT 21/19 A2995 RMK A01 T02110185  RH  085%=      5-min Rain = 0
KEA1 252230Z 05006KT 21/19 A2995 RMK A01 T02110187  RH  086%=      5-min Rain = 0
KEA1 252231Z 06007KT 21/19 A2995 RMK A01 T02130186  RH  085%=      5-min Rain = 0
KEA1 252232Z 06009KT 21/19 A2994 RMK A01 T02140187  RH  084%=      5-min Rain = 0
KEA1 252233Z 06009KT 22/19 A2994 RMK A01 T02150187  RH  084%=      5-min Rain = 0
KEA1 252234Z 06010KT 22/19 A2993 RMK A01 T02160188  RH  084%=      5-min Rain = 0
KEA1 252235Z 07010KT 22/19 A2992 RMK A01 T02180189  RH  084%=      5-min Rain = 0
KEA1 252236Z 07010KT 22/19 A2992 RMK A01 T02180187  RH  082%=      5-min Rain = 0
KEA1 252237Z 07011KT 22/18 A2991 RMK A01 T02180184  RH  081%=      5-min Rain = 0
KEA1 252238Z 08008KT 22/19 A2991 RMK A01 T02170185  RH  082%=      5-min Rain = 0
KEA1 252239Z 07009KT 22/18 A2991 RMK A01 T02180182  RH  080%=      5-min Rain = 0
KEA1 252240Z 06008KT 22/18 A299 RMK A01 T02170180  RH  079%=      5-min Rain = 0
KEA1 252241Z 06008KT 22/18 A299 RMK A01 T02160181  RH  081%=      5-min Rain = 0
KEA1 252242Z 07008KT 22/18 A2991 RMK A01 T02160180  RH  080%=      5-min Rain = 0
KEA1 252243Z 08006KT 22/18 A2991 RMK A01 T02170178  RH  078%=      5-min Rain = 0
KEA1 252244Z 08006KT 22/18 A2992 RMK A01 T02170178  RH  078%=      5-min Rain = 0
KEA1 252245Z 06008KT 22/18 A2992 RMK A01 T02190181  RH  079%=      5-min Rain = 0
KEA1 252246Z 07007KT 22/18 A2992 RMK A01 T02190180  RH  078%=      5-min Rain = 0
KEA1 252247Z 07008KT 22/18 A2992 RMK A01 T02190182  RH  079%=      5-min Rain = 0
KEA1 252248Z 06008KT 22/18 A2992 RMK A01 T02190182  RH  079%=      5-min Rain = 0
KEA1 252249Z 06007KT 22/18 A2992 RMK A01 T02180183  RH  080%=      5-min Rain = 0
KEA1 252250Z 06006KT 22/19 A2992 RMK A01 T02180186  RH  082%=      5-min Rain = 0
KEA1 252251Z 07009KT 22/18 A2992 RMK A01 T02190184  RH  080%=      5-min Rain = 0
KEA1 252252Z 06009KT 22/18 A2992 RMK A01 T02180182  RH  079%=      5-min Rain = 0
KEA1 252253Z 07009KT 22/18 A2992 RMK A01 T02170181  RH  080%=      5-min Rain = 0
KEA1 252254Z 09008KT 22/18 A2992 RMK A01 T02160183  RH  081%=      5-min Rain = 0
KEA1 252255Z 08010KT 22/18 A2992 RMK A01 T02170184  RH  081%=      5-min Rain = 0
KEA1 252256Z 09008KT 22/19 A2992 RMK A01 T02210189  RH  082%=      5-min Rain = 0
KEA1 252257Z 08010KT 22/19 A2993 RMK A01 T02230187  RH  080%=      5-min Rain = 0
KEA1 252258Z 08010KT 22/19 A2993 RMK A01 T02230185  RH  079%=      5-min Rain = 0
KEA1 252259Z 09009KT 22/19 A2993 RMK A01 T02220186  RH  080%=      5-min Rain = 0
KEA1 252300Z 10012KT 22/19 A2993 RMK A01 T02220187  RH  081%=      5-min Rain = 0
KEA1 252301Z 10013KT 22/19 A2993 RMK A01 T02230187  RH  080%=      5-min Rain = 0
KEA1 252302Z 11016G21KT 22/19 A2994 RMK A01 T02240185  RH  079%=      5-min Rain = 0
KEA1 252303Z 11019KT 23/19 A2994 RMK A01 T02260185  RH  078%=      5-min Rain = 0
KEA1 252304Z 12019KT 23/18 A2994 RMK A01 T02270178  RH  074%=      5-min Rain = 0
KEA1 252305Z 13021G26KT 23/18 A2995 RMK A01 T02270180  RH  075%=      5-min Rain = 0
KEA1 252306Z 13021G26KT 22/18 A2995 RMK A01 T02240176  RH  074%=      5-min Rain = 0
KEA1 252307Z 13021KT 22/18 A2995 RMK A01 T02210176  RH  075%=      5-min Rain = 0
KEA1 252308Z 13025G35KT 22/18 A2995 RMK A01 T02190176  RH  077%=      5-min Rain = 0
KEA1 252309Z 14028G36KT 22/17 A2994 RMK A01 T02170174  RH  077%=      5-min Rain = 0
KEA1 252310Z 13019G24KT 22/18 A2994 RMK A01 T02150176  RH  078%=      5-min Rain = 0
KEA1 252311Z 13019KT 21/18 A2993 RMK A01 T02140175  RH  078%=      5-min Rain = 0
KEA1 252312Z 14021KT 21/17 A2993 RMK A01 T02130172  RH  078%=      5-min Rain = 0
KEA1 252313Z 14019KT 21/17 A2993 RMK A01 T02110173  RH  078%=      5-min Rain = 0
KEA1 252314Z 13019G24KT 21/17 A2993 RMK A01 T02110172  RH  078%=      5-min Rain = 0
KEA1 252315Z 13019KT 21/17 A2993 RMK A01 T02090172  RH  079%=      5-min Rain = 0
KEA1 252316Z 12013G19KT 21/17 A2993 RMK A01 T02090172  RH  080%=      5-min Rain = 0
KEA1 252317Z 14018G23KT 21/17 A2992 RMK A01 T02080172  RH  080%=      5-min Rain = 0
KEA1 252318Z 14013G18KT 21/17 A2992 RMK A01 T02090174  RH  080%=      5-min Rain = 0
KEA1 252319Z 14016G22KT 21/17 A2993 RMK A01 T02100169  RH  077%=      5-min Rain = 0
KEA1 252320Z 14017KT 21/15 A2993 RMK A01 T02100154  RH  070%=      5-min Rain = 0
KEA1 252321Z 14018KT 21/15 A2993 RMK A01 T02100153  RH  070%=      5-min Rain = 0
KEA1 252322Z 14019KT 21/15 A2993 RMK A01 T02070154  RH  071%=      5-min Rain = 0
KEA1 252323Z 13016KT 21/15 A2993 RMK A01 T02050154  RH  073%=      5-min Rain = 0
KEA1 252324Z 13017KT 20/16 A2993 RMK A01 T02040156  RH  074%=      5-min Rain = 0
KEA1 252325Z 13018KT 20/16 A2993 RMK A01 T02020156  RH  075%=      5-min Rain = 0
KEA1 252326Z 12014KT 20/16 A2993 RMK A01 T02000159  RH  077%=      5-min Rain = 0
KEA1 252327Z 12013KT 20/16 A2993 RMK A01 T01970160  RH  079%=      5-min Rain = 0
KEA1 252328Z 12010G16KT 20/16 A2993 RMK A01 T01960160  RH  080%=      5-min Rain = 0
KEA1 252329Z 11013KT 20/16 A2993 RMK A01 T01950160  RH  080%=      5-min Rain = 0
KEA1 252330Z 10009KT 19/16 A2994 RMK A01 T01940162  RH  081%=      5-min Rain = 0
KEA1 252331Z 08008KT 19/16 A2994 RMK A01 T01930163  RH  083%=      5-min Rain = 0
KEA1 252332Z 09010KT 19/16 A2994 RMK A01 T01930161  RH  082%=      5-min Rain = 0
KEA1 252333Z 10009KT 19/16 A2995 RMK A01 T01910158  RH  081%=      5-min Rain = 0
KEA1 252334Z 09007KT 19/16 A2995 RMK A01 T01900157  RH  081%=      5-min Rain = 0
KEA1 252335Z 09006KT 19/16 A2995 RMK A01 T01890158  RH  082%=      5-min Rain = 0
KEA1 252336Z 09007KT 19/16 A2996 RMK A01 T01880158  RH  083%=      5-min Rain = 0
KEA1 252337Z 10007KT 19/16 A2996 RMK A01 T01880158  RH  083%=      5-min Rain = 0
KEA1 252338Z 08006KT 19/16 A2996 RMK A01 T01880159  RH  083%=      5-min Rain = 0
KEA1 252339Z 04007KT 19/16 A2996 RMK A01 T01880161  RH  084%=      5-min Rain = 0
KEA1 252340Z 02006KT 19/16 A2996 RMK A01 T01880163  RH  085%=      5-min Rain = 0
KEA1 252341Z 02007KT 19/17 A2996 RMK A01 T01900165  RH  086%=      5-min Rain = 0
KEA1 252342Z 03007KT 19/17 A2996 RMK A01 T01920166  RH  085%=      5-min Rain = 0
KEA1 252343Z 04006KT 19/17 A2996 RMK A01 T01930166  RH  085%=      5-min Rain = 0
KEA1 252344Z 05007KT 19/16 A2996 RMK A01 T01940164  RH  083%=      5-min Rain = 0
KEA1 252345Z 06007KT 19/16 A2996 RMK A01 T01940161  RH  081%=      5-min Rain = 0
KEA1 252346Z 05007KT 19/16 A2996 RMK A01 T01920158  RH  081%=      5-min Rain = 0
KEA1 252347Z 05006KT 19/16 A2996 RMK A01 T01910156  RH  080%=      5-min Rain = 0
KEA1 252348Z 07004KT 19/15 A2996 RMK A01 T01910153  RH  079%=      5-min Rain = 0
KEA1 252349Z 08003KT 19/15 A2996 RMK A01 T01910150  RH  077%=      5-min Rain = 0
KEA1 252350Z 09002KT 19/15 A2996 RMK A01 T01920149  RH  076%=      5-min Rain = 0
KEA1 252351Z 08002KT 19/15 A2996 RMK A01 T01930151  RH  077%=      5-min Rain = 0
KEA1 252352Z 13005KT 20/15 A2996 RMK A01 T01950150  RH  075%=      5-min Rain = 0
KEA1 252353Z 13004KT 20/14 A2995 RMK A01 T01960141  RH  070%=      5-min Rain = 0
KEA1 252354Z 11004KT 20/14 A2995 RMK A01 T01970143  RH  071%=      5-min Rain = 0
KEA1 252355Z 11005KT 20/14 A2995 RMK A01 T01970142  RH  070%=      5-min Rain = 0
KEA1 252356Z 12008KT 20/14 A2995 RMK A01 T01980144  RH  071%=      5-min Rain = 0
KEA1 252357Z 12008KT 20/14 A2994 RMK A01 T01990144  RH  070%=      5-min Rain = 0
KEA1 252358Z 12006KT 20/14 A2994 RMK A01 T01990143  RH  070%=      5-min Rain = 0
KEA1 252359Z 13007KT 20/14 A2994 RMK A01 T02000144  RH  070%=      5-min Rain = 0
KEA1 260000Z 13008KT 20/14 A2994 RMK A01 T02000143  RH  070%=      5-min Rain = 0
KEA1 260001Z 11008KT 20/15 A2994 RMK A01 T01990145  RH  071%=      5-min Rain = 0
KEA1 260002Z 13008KT 20/14 A2994 RMK A01 T01990144  RH  070%=      5-min Rain = 0
KEA1 260003Z 12007KT 20/15 A2994 RMK A01 T02000145  RH  071%=      5-min Rain = 0
KEA1 260004Z 12008KT 20/15 A2993 RMK A01 T02000148  RH  072%=      5-min Rain = 0
KEA1 260005Z 11009KT 20/15 A2993 RMK A01 T02010148  RH  071%=      5-min Rain = 0
KEA1 260006Z 11010KT 20/15 A2993 RMK A01 T02000147  RH  071%=      5-min Rain = 0
KEA1 260007Z 11009KT 20/15 A2993 RMK A01 T02000146  RH  071%=      5-min Rain = 0
KEA1 260008Z 11008KT 20/15 A2993 RMK A01 T01990148  RH  072%=      5-min Rain = 0
KEA1 260009Z 12007KT 20/15 A2993 RMK A01 T01990149  RH  073%=      5-min Rain = 0
KEA1 260010Z 11009KT 20/15 A2993 RMK A01 T01990149  RH  073%=      5-min Rain = 0
KEA1 260011Z 12010KT 20/15 A2993 RMK A01 T02000148  RH  072%=      5-min Rain = 0
KEA1 260012Z 12010KT 20/15 A2993 RMK A01 T01990149  RH  073%=      5-min Rain = 0
KEA1 260013Z 12011KT 20/15 A2993 RMK A01 T02000149  RH  072%=      5-min Rain = 0
KEA1 260014Z 12011KT 20/15 A2993 RMK A01 T02010149  RH  072%=      5-min Rain = 0
KEA1 260015Z 11010KT 20/15 A2993 RMK A01 T02010150  RH  072%=      5-min Rain = 0
KEA1 260016Z 12012KT 20/15 A2994 RMK A01 T02020152  RH  073%=      5-min Rain = 0
KEA1 260017Z 12013KT 20/15 A2993 RMK A01 T02030151  RH  072%=      5-min Rain = 0
KEA1 260018Z 12011KT 20/15 A2993 RMK A01 T02030152  RH  072%=      5-min Rain = 0
KEA1 260019Z 11010KT 20/15 A2993 RMK A01 T02040154  RH  073%=      5-min Rain = 0
KEA1 260020Z 11010KT 21/16 A2993 RMK A01 T02050155  RH  073%=      5-min Rain = 0
KEA1 260021Z 10010KT 21/16 A2993 RMK A01 T02050156  RH  073%=      5-min Rain = 0
KEA1 260022Z 11010KT 21/16 A2993 RMK A01 T02050157  RH  074%=      5-min Rain = 0
KEA1 260023Z 11009KT 21/16 A2993 RMK A01 T02050158  RH  074%=      5-min Rain = 0
KEA1 260024Z 11009KT 21/16 A2993 RMK A01 T02060158  RH  074%=      5-min Rain = 0
KEA1 260025Z 11010KT 21/16 A2993 RMK A01 T02070160  RH  074%=      5-min Rain = 0
KEA1 260026Z 12010KT 21/16 A2993 RMK A01 T02070159  RH  074%=      5-min Rain = 0
KEA1 260027Z 12009KT 21/16 A2993 RMK A01 T02070159  RH  074%=      5-min Rain = 0
KEA1 260028Z 12008KT 21/16 A2993 RMK A01 T02080160  RH  074%=      5-min Rain = 0
KEA1 260029Z 12012KT 21/16 A2993 RMK A01 T02090159  RH  073%=      5-min Rain = 0
KEA1 260030Z 11009KT 21/16 A2993 RMK A01 T02080158  RH  073%=      5-min Rain = 0
KEA1 260031Z 12009KT 21/16 A2993 RMK A01 T02090159  RH  073%=      5-min Rain = 0
KEA1 260032Z 11009KT 21/16 A2993 RMK A01 T02080157  RH  073%=      5-min Rain = 0
KEA1 260033Z 11009KT 21/16 A2993 RMK A01 T02080156  RH  072%=      5-min Rain = 0
KEA1 260034Z 11009KT 21/16 A2993 RMK A01 T02080155  RH  072%=      5-min Rain = 0
KEA1 260035Z 11008KT 21/16 A2993 RMK A01 T02070155  RH  072%=      5-min Rain = 0
KEA1 260036Z 11007KT 21/16 A2993 RMK A01 T02070155  RH  072%=      5-min Rain = 0
KEA1 260037Z 10007KT 21/16 A2993 RMK A01 T02070155  RH  072%=      5-min Rain = 0
KEA1 260038Z 11007KT 21/16 A2993 RMK A01 T02070156  RH  073%=      5-min Rain = 0
KEA1 260039Z 11007G12KT 21/16 A2993 RMK A01 T02070157  RH  073%=      5-min Rain = 0
KEA1 260040Z 11008KT 21/16 A2993 RMK A01 T02070156  RH  072%=      5-min Rain = 0
KEA1 260041Z 12010KT 21/16 A2993 RMK A01 T02080159  RH  073%=      5-min Rain = 0
KEA1 260042Z 10008KT 21/16 A2993 RMK A01 T02090159  RH  073%=      5-min Rain = 0
KEA1 260043Z 11009KT 21/16 A2993 RMK A01 T02100158  RH  072%=      5-min Rain = 0
KEA1 260044Z 10007KT 21/16 A2993 RMK A01 T02100156  RH  071%=      5-min Rain = 0
KEA1 260045Z 10006KT 21/16 A2993 RMK A01 T02100157  RH  071%=      5-min Rain = 0
KEA1 260046Z 10006KT 21/16 A2993 RMK A01 T02100158  RH  072%=      5-min Rain = 0
KEA1 260047Z 10006KT 21/16 A2993 RMK A01 T02100157  RH  072%=      5-min Rain = 0
KEA1 260048Z 11007KT 21/16 A2993 RMK A01 T02100159  RH  073%=      5-min Rain = 0
KEA1 260049Z 10007KT 21/16 A2993 RMK A01 T02090160  RH  073%=      5-min Rain = 0
KEA1 260050Z 10007KT 21/16 A2993 RMK A01 T02100160  RH  073%=      5-min Rain = 0
KEA1 260051Z 10007KT 21/16 A2993 RMK A01 T02100162  RH  074%=      5-min Rain = 0
KEA1 260052Z 10007KT 21/16 A2993 RMK A01 T02110164  RH  074%=      5-min Rain = 0
KEA1 260053Z 10008KT 21/17 A2993 RMK A01 T02110165  RH  075%=      5-min Rain = 0
KEA1 260054Z 09006KT 21/17 A2993 RMK A01 T02110165  RH  075%=      5-min Rain = 0
KEA1 260055Z 07007KT 21/16 A2993 RMK A01 T02120163  RH  074%=      5-min Rain = 0
KEA1 260056Z 06009KT 21/16 A2993 RMK A01 T02070158  RH  073%=      5-min Rain = 0
KEA1 260057Z 07008KT 20/16 A2993 RMK A01 T02020158  RH  076%=      5-min Rain = 0
KEA1 260058Z 07009KT 20/16 A2993 RMK A01 T01980158  RH  078%=      5-min Rain = 0
KEA1 260059Z 07008KT 20/16 A2993 RMK A01 T01960158  RH  079%=      5-min Rain = 0
KEA1 260100Z 07010KT 20/16 A2993 RMK A01 T01950158  RH  079%=      5-min Rain = 0
KEA1 260101Z 07009KT 20/16 A2993 RMK A01 T01950158  RH  079%=      5-min Rain = 0
KEA1 260102Z 07009KT 20/16 A2993 RMK A01 T01950158  RH  079%=      5-min Rain = 0
KEA1 260103Z 07009KT 20/16 A2993 RMK A01 T01950158  RH  079%=      5-min Rain = 0
KEA1 260104Z 07011KT 20/16 A2993 RMK A01 T01950157  RH  079%=      5-min Rain = 0
KEA1 260105Z 07010KT 19/16 A2993 RMK A01 T01940156  RH  079%=      5-min Rain = 0
KEA1 260106Z 07009KT 19/16 A2993 RMK A01 T01940157  RH  079%=      5-min Rain = 0
KEA1 260107Z 08009KT 19/16 A2993 RMK A01 T01940158  RH  080%=      5-min Rain = 0
KEA1 260108Z 07009KT 19/16 A2993 RMK A01 T01940159  RH  080%=      5-min Rain = 0
KEA1 260109Z 07008KT 19/16 A2993 RMK A01 T01930159  RH  081%=      5-min Rain = 0
KEA1 260110Z 08009KT 19/16 A2993 RMK A01 T01930160  RH  081%=      5-min Rain = 0
KEA1 260111Z 08009KT 19/16 A2993 RMK A01 T01930160  RH  081%=      5-min Rain = 0
KEA1 260112Z 08008KT 19/16 A2993 RMK A01 T01940161  RH  081%=      5-min Rain = 0
KEA1 260113Z 08007KT 19/16 A2993 RMK A01 T01940161  RH  081%=      5-min Rain = 0
KEA1 260114Z 09007KT 19/16 A2993 RMK A01 T01940162  RH  081%=      5-min Rain = 0
KEA1 260115Z 09006KT 20/16 A2994 RMK A01 T01950163  RH  082%=      5-min Rain = 0
KEA1 260116Z 09006KT 20/16 A2994 RMK A01 T01960164  RH  082%=      5-min Rain = 0
KEA1 260117Z 09006KT 20/16 A2994 RMK A01 T01960164  RH  082%=      5-min Rain = 0
KEA1 260118Z 10006KT 20/17 A2994 RMK A01 T01970165  RH  082%=      5-min Rain = 0
KEA1 260119Z 09007KT 20/17 A2994 RMK A01 T01970166  RH  082%=      5-min Rain = 0
KEA1 260120Z 09007KT 20/17 A2994 RMK A01 T01970166  RH  082%=      5-min Rain = 0
KEA1 260121Z 10008KT 20/17 A2994 RMK A01 T01980167  RH  082%=      5-min Rain = 0
KEA1 260122Z 10008KT 20/17 A2994 RMK A01 T01980167  RH  082%=      5-min Rain = 0
KEA1 260123Z 10007KT 20/17 A2994 RMK A01 T01990168  RH  082%=      5-min Rain = 0
KEA1 260124Z 10007KT 20/17 A2994 RMK A01 T01990169  RH  083%=      5-min Rain = 0
KEA1 260125Z 10008KT 20/17 A2994 RMK A01 T02000170  RH  083%=      5-min Rain = 0
KEA1 260126Z 10007KT 20/17 A2994 RMK A01 T02000170  RH  083%=      5-min Rain = 0
KEA1 260127Z 10007KT 20/17 A2994 RMK A01 T02010171  RH  083%=      5-min Rain = 0
KEA1 260128Z 10008KT 20/17 A2994 RMK A01 T02010171  RH  083%=      5-min Rain = 0
KEA1 260129Z 10008KT 20/17 A2994 RMK A01 T02010172  RH  083%=      5-min Rain = 0
KEA1 260130Z 10008KT 20/17 A2994 RMK A01 T02000172  RH  084%=      5-min Rain = 0
KEA1 260131Z 11008KT 20/17 A2994 RMK A01 T02000173  RH  084%=      5-min Rain = 0
KEA1 260132Z 10007KT 20/17 A2994 RMK A01 T02010174  RH  084%=      5-min Rain = 0
KEA1 260133Z 10008KT 20/17 A2994 RMK A01 T02010174  RH  084%=      5-min Rain = 0
KEA1 260134Z 10008KT 20/18 A2994 RMK A01 T02010175  RH  085%=      5-min Rain = 0
KEA1 260135Z 10008KT 20/18 A2994 RMK A01 T02010175  RH  085%=      5-min Rain = 0
KEA1 260136Z 10008KT 20/18 A2994 RMK A01 T02020175  RH  085%=      5-min Rain = 0
KEA1 260137Z 10008KT 20/18 A2994 RMK A01 T02010175  RH  085%=      5-min Rain = 0
KEA1 260138Z 10007KT 20/18 A2994 RMK A01 T02020176  RH  085%=      5-min Rain = 0
KEA1 260139Z 10007KT 20/18 A2994 RMK A01 T02010176  RH  085%=      5-min Rain = 0
KEA1 260140Z 11008KT 20/18 A2994 RMK A01 T02010177  RH  086%=      5-min Rain = 0
KEA1 260141Z 10007KT 20/18 A2994 RMK A01 T02010177  RH  086%=      5-min Rain = 0
KEA1 260142Z 10007KT 20/18 A2994 RMK A01 T02010178  RH  086%=      5-min Rain = 0
KEA1 260143Z 10007KT 20/18 A2994 RMK A01 T02010178  RH  087%=      5-min Rain = 0
KEA1 260144Z 10007KT 20/18 A2994 RMK A01 T02010178  RH  087%=      5-min Rain = 0
KEA1 260145Z 10007KT 20/18 A2994 RMK A01 T02000178  RH  087%=      5-min Rain = 0
KEA1 260146Z 10007KT 20/18 A2994 RMK A01 T02000178  RH  087%=      5-min Rain = 0
KEA1 260147Z 10007KT 20/18 A2994 RMK A01 T01990179  RH  088%=      5-min Rain = 0
KEA1 260148Z 10007KT 20/18 A2994 RMK A01 T01990179  RH  088%=      5-min Rain = 0
KEA1 260149Z 10007KT 20/18 A2994 RMK A01 T01990179  RH  088%=      5-min Rain = 0
KEA1 260150Z 10007KT 20/18 A2994 RMK A01 T01990180  RH  089%=      5-min Rain = 0
KEA1 260151Z 10006KT 20/18 A2994 RMK A01 T01990180  RH  089%=      5-min Rain = 0
KEA1 260152Z 10007KT 20/18 A2994 RMK A01 T01990180  RH  089%=      5-min Rain = 0
KEA1 260153Z 10007KT 20/18 A2994 RMK A01 T01990181  RH  089%=      5-min Rain = 0
KEA1 260154Z 10007KT 20/18 A2994 RMK A01 T01990182  RH  090%=      5-min Rain = 0
KEA1 260155Z 10007KT 20/18 A2994 RMK A01 T01990182  RH  090%=      5-min Rain = 0
KEA1 260156Z 10007KT 20/18 A2994 RMK A01 T01990182  RH  090%=      5-min Rain = 0
KEA1 260157Z 10008KT 20/18 A2994 RMK A01 T02000184  RH  090%=      5-min Rain = 0
KEA1 260158Z 10008KT 20/18 A2994 RMK A01 T02000184  RH  090%=      5-min Rain = 0
KEA1 260159Z 10009KT 20/19 A2994 RMK A01 T02010185  RH  090%=      5-min Rain = 0
KEA1 260200Z 09007KT 20/19 A2994 RMK A01 T02010185  RH  090%=      5-min Rain = 0
KEA1 260201Z 08006KT 20/19 A2994 RMK A01 T02020185  RH  090%=      5-min Rain = 0
KEA1 260202Z 08007KT 20/18 A2995 RMK A01 T02000183  RH  090%=      5-min Rain = 0
KEA1 260203Z 09006KT 20/18 A2995 RMK A01 T01980179  RH  089%=      5-min Rain = 0
KEA1 260204Z 09006KT 20/18 A2995 RMK A01 T01970178  RH  089%=      5-min Rain = 0
KEA1 260205Z 09007KT 20/18 A2995 RMK A01 T01950176  RH  089%=      5-min Rain = 0
KEA1 260206Z 09007KT 19/18 A2995 RMK A01 T01940175  RH  089%=      5-min Rain = 0
KEA1 260207Z 09007KT 19/18 A2995 RMK A01 T01930175  RH  089%=      5-min Rain = 0
KEA1 260208Z 09008KT 19/18 A2995 RMK A01 T01920175  RH  090%=      5-min Rain = 0
KEA1 260209Z 08008KT 19/17 A2995 RMK A01 T01910174  RH  090%=      5-min Rain = 0
KEA1 260210Z 09007KT 19/17 A2995 RMK A01 T01910174  RH  090%=      5-min Rain = 0
KEA1 260211Z 08008KT 19/17 A2995 RMK A01 T01900174  RH  090%=      5-min Rain = 0
KEA1 260212Z 08009KT 19/17 A2995 RMK A01 T01900174  RH  091%=      5-min Rain = 0
KEA1 260213Z 08009KT 19/17 A2995 RMK A01 T01900174  RH  091%=      5-min Rain = 0
KEA1 260214Z 08010KT 19/18 A2995 RMK A01 T01900175  RH  091%=      5-min Rain = 0
KEA1 260215Z 08009KT 19/17 A2995 RMK A01 T01900174  RH  091%=      5-min Rain = 0
KEA1 260216Z 08009KT 19/17 A2995 RMK A01 T01890174  RH  090%=      5-min Rain = 0
KEA1 260217Z 08011KT 19/17 A2995 RMK A01 T01890173  RH  091%=      5-min Rain = 0
KEA1 260218Z 08009KT 19/17 A2995 RMK A01 T01890173  RH  090%=      5-min Rain = 0
KEA1 260219Z 08007KT 19/17 A2995 RMK A01 T01880172  RH  090%=      5-min Rain = 0
KEA1 260220Z 08008KT 19/17 A2995 RMK A01 T01880172  RH  090%=      5-min Rain = 0
KEA1 260221Z 09007KT 19/17 A2995 RMK A01 T01880172  RH  090%=      5-min Rain = 0
KEA1 260222Z 09007KT 19/17 A2995 RMK A01 T01880172  RH  091%=      5-min Rain = 0
KEA1 260223Z 09007KT 19/17 A2995 RMK A01 T01880172  RH  091%=      5-min Rain = 0
KEA1 260224Z 08008KT 19/17 A2995 RMK A01 T01880173  RH  091%=      5-min Rain = 0
KEA1 260225Z 09007KT 19/17 A2995 RMK A01 T01880173  RH  091%=      5-min Rain = 0
KEA1 260226Z 09007KT 19/17 A2995 RMK A01 T01880173  RH  091%=      5-min Rain = 0
KEA1 260227Z 09007KT 19/17 A2995 RMK A01 T01880173  RH  091%=      5-min Rain = 0
KEA1 260228Z 09007KT 19/17 A2995 RMK A01 T01880174  RH  091%=      5-min Rain = 0
KEA1 260229Z 09007KT 19/17 A2995 RMK A01 T01870174  RH  092%=      5-min Rain = 0
KEA1 260230Z 09008KT 19/17 A2995 RMK A01 T01880174  RH  092%=      5-min Rain = 0
KEA1 260231Z 10008KT 19/17 A2995 RMK A01 T01870174  RH  092%=      5-min Rain = 0
KEA1 260232Z 10007KT 19/17 A2995 RMK A01 T01870174  RH  092%=      5-min Rain = 0
KEA1 260233Z 10007KT 19/17 A2995 RMK A01 T01870174  RH  092%=      5-min Rain = 0
KEA1 260234Z 10007KT 19/17 A2995 RMK A01 T01870174  RH  092%=      5-min Rain = 0
KEA1 260235Z 10007KT 19/17 A2995 RMK A01 T01860174  RH  092%=      5-min Rain = 0
KEA1 260236Z 10007KT 19/17 A2995 RMK A01 T01860174  RH  093%=      5-min Rain = 0
KEA1 260237Z 10007KT 19/17 A2995 RMK A01 T01850173  RH  093%=      5-min Rain = 0
KEA1 260238Z 10007KT 19/17 A2995 RMK A01 T01850173  RH  093%=      5-min Rain = 0
KEA1 260239Z 10006KT 19/17 A2995 RMK A01 T01850173  RH  093%=      5-min Rain = 0
KEA1 260240Z 11006KT 18/17 A2995 RMK A01 T01840173  RH  093%=      5-min Rain = 0
KEA1 260241Z 11007KT 18/17 A2995 RMK A01 T01840173  RH  093%=      5-min Rain = 0
KEA1 260242Z 11007KT 18/17 A2995 RMK A01 T01840174  RH  094%=      5-min Rain = 0
KEA1 260243Z 12007KT 18/17 A2995 RMK A01 T01840173  RH  094%=      5-min Rain = 0
KEA1 260244Z 12007KT 18/17 A2995 RMK A01 T01830174  RH  094%=      5-min Rain = 0
KEA1 260245Z 12008KT 18/18 A2995 RMK A01 T01840176  RH  095%=      5-min Rain = 0
KEA1 260246Z 12008KT 19/18 A2995 RMK A01 T01870180  RH  096%=      5-min Rain = 0
KEA1 260247Z 12009KT 19/18 A2995 RMK A01 T01890182  RH  096%=      5-min Rain = 0
KEA1 260248Z 12011KT 19/18 A2995 RMK A01 T01910184  RH  096%=      5-min Rain = 0
KEA1 260249Z 12009KT 19/19 A2995 RMK A01 T01940186  RH  095%=      5-min Rain = 0
KEA1 260250Z 12010KT 20/19 A2995 RMK A01 T01960187  RH  095%=      5-min Rain = 0
KEA1 260251Z 12010KT 20/19 A2995 RMK A01 T01970187  RH  094%=      5-min Rain = 0
KEA1 260252Z 12011KT 20/19 A2995 RMK A01 T01980187  RH  093%=      5-min Rain = 0
KEA1 260253Z 12012KT 20/19 A2995 RMK A01 T01990187  RH  092%=      5-min Rain = 0
KEA1 260254Z 12011KT 20/19 A2995 RMK A01 T02000187  RH  092%=      5-min Rain = 0
KEA1 260255Z 12011KT 20/19 A2995 RMK A01 T02010187  RH  092%=      5-min Rain = 0
KEA1 260256Z 12010KT 20/19 A2995 RMK A01 T02010187  RH  091%=      5-min Rain = 0
KEA1 260257Z 12010KT 20/19 A2995 RMK A01 T02010187  RH  091%=      5-min Rain = 0
KEA1 260258Z 12010KT 20/19 A2995 RMK A01 T02010187  RH  091%=      5-min Rain = 0
KEA1 260259Z 11010KT 20/19 A2995 RMK A01 T02010187  RH  092%=      5-min Rain = 0
KEA1 260300Z 12010KT 20/19 A2995 RMK A01 T02010187  RH  092%=      5-min Rain = 0
KEA1 260301Z 12010KT 20/19 A2995 RMK A01 T02010187  RH  092%=      5-min Rain = 0
KEA1 260302Z 12011KT 20/19 A2995 RMK A01 T02010187  RH  092%=      5-min Rain = 0
KEA1 260303Z 13010KT 20/19 A2995 RMK A01 T02010187  RH  092%=      5-min Rain = 0
KEA1 260304Z 12010KT 20/19 A2995 RMK A01 T02010187  RH  091%=      5-min Rain = 0
KEA1 260305Z 12009KT 20/19 A2995 RMK A01 T02010187  RH  092%=      5-min Rain = 0
KEA1 260306Z 12010KT 20/19 A2995 RMK A01 T02010187  RH  092%=      5-min Rain = 0
KEA1 260307Z 13010KT 20/19 A2995 RMK A01 T02020187  RH  091%=      5-min Rain = 0
KEA1 260308Z 13009KT 20/19 A2995 RMK A01 T02020187  RH  091%=      5-min Rain = 0
KEA1 260309Z 13010KT 20/19 A2995 RMK A01 T02020188  RH  091%=      5-min Rain = 0
KEA1 260310Z 13009KT 20/19 A2995 RMK A01 T02020188  RH  091%=      5-min Rain = 0
KEA1 260311Z 13011KT 20/19 A2995 RMK A01 T02030188  RH  091%=      5-min Rain = 0
KEA1 260312Z 13011KT 20/19 A2995 RMK A01 T02030188  RH  091%=      5-min Rain = 0
KEA1 260313Z 14010KT 20/19 A2995 RMK A01 T02040189  RH  091%=      5-min Rain = 0
KEA1 260314Z 13011KT 20/19 A2995 RMK A01 T02040188  RH  090%=      5-min Rain = 0
KEA1 260315Z 13011KT 20/19 A2995 RMK A01 T02040188  RH  090%=      5-min Rain = 0
KEA1 260316Z 14011KT 21/19 A2996 RMK A01 T02050188  RH  090%=      5-min Rain = 0
KEA1 260317Z 14011KT 21/19 A2996 RMK A01 T02050188  RH  090%=      5-min Rain = 0
KEA1 260318Z 14010KT 21/19 A2996 RMK A01 T02050188  RH  090%=      5-min Rain = 0
KEA1 260319Z 14011KT 21/19 A2996 RMK A01 T02050188  RH  090%=      5-min Rain = 0
KEA1 260320Z 14011KT 21/19 A2996 RMK A01 T02050188  RH  090%=      5-min Rain = 0
KEA1 260321Z 14010KT 21/19 A2996 RMK A01 T02060188  RH  090%=      5-min Rain = 0
KEA1 260322Z 14011KT 21/19 A2996 RMK A01 T02050188  RH  090%=      5-min Rain = 0
KEA1 260323Z 14012KT 21/19 A2996 RMK A01 T02060188  RH  090%=      5-min Rain = 0
KEA1 260324Z 14011KT 21/19 A2996 RMK A01 T02060188  RH  090%=      5-min Rain = 0
KEA1 260325Z 14010KT 21/19 A2996 RMK A01 T02060188  RH  089%=      5-min Rain = 0
KEA1 260326Z 14011KT 21/19 A2996 RMK A01 T02060188  RH  089%=      5-min Rain = 0
KEA1 260327Z 14012KT 21/19 A2996 RMK A01 T02050188  RH  090%=      5-min Rain = 0
KEA1 260328Z 14010KT 21/19 A2996 RMK A01 T02050187  RH  089%=      5-min Rain = 0
KEA1 260329Z 14012KT 21/19 A2996 RMK A01 T02060188  RH  089%=      5-min Rain = 0
KEA1 260330Z 14013KT 21/19 A2996 RMK A01 T02060188  RH  089%=      5-min Rain = 0
KEA1 260331Z 14012KT 21/19 A2996 RMK A01 T02050187  RH  089%=      5-min Rain = 0
KEA1 260332Z 15012KT 21/19 A2996 RMK A01 T02050187  RH  089%=      5-min Rain = 0
KEA1 260333Z 15010KT 21/19 A2996 RMK A01 T02050187  RH  089%=      5-min Rain = 0
KEA1 260334Z 15013KT 21/19 A2996 RMK A01 T02050187  RH  089%=      5-min Rain = 0
KEA1 260335Z 15012KT 21/19 A2996 RMK A01 T02050187  RH  090%=      5-min Rain = 0
KEA1 260336Z 15012KT 21/19 A2996 RMK A01 T02050187  RH  089%=      5-min Rain = 0
KEA1 260337Z 15012KT 20/19 A2996 RMK A01 T02040186  RH  089%=      5-min Rain = 0
KEA1 260338Z 15012KT 21/19 A2996 RMK A01 T02050187  RH  089%=      5-min Rain = 0
KEA1 260339Z 15012KT 21/19 A2996 RMK A01 T02050187  RH  089%=      5-min Rain = 0
KEA1 260340Z 15012KT 21/19 A2996 RMK A01 T02050187  RH  089%=      5-min Rain = 0
KEA1 260341Z 15012KT 20/19 A2996 RMK A01 T02040186  RH  090%=      5-min Rain = 0
KEA1 260342Z 15012KT 20/19 A2996 RMK A01 T02040187  RH  090%=      5-min Rain = 0
KEA1 260343Z 15012KT 20/19 A2996 RMK A01 T02040186  RH  090%=      5-min Rain = 0
KEA1 260344Z 15011KT 20/19 A2996 RMK A01 T02040186  RH  090%=      5-min Rain = 0
KEA1 260345Z 15013KT 20/19 A2996 RMK A01 T02040186  RH  090%=      5-min Rain = 0
KEA1 260346Z 15013KT 20/19 A2997 RMK A01 T02040186  RH  090%=      5-min Rain = 0
KEA1 260347Z 15013KT 20/19 A2997 RMK A01 T02030186  RH  090%=      5-min Rain = 0
KEA1 260348Z 16013KT 20/19 A2997 RMK A01 T02040186  RH  090%=      5-min Rain = 0
KEA1 260349Z 16014KT 20/19 A2997 RMK A01 T02030186  RH  090%=      5-min Rain = 0
KEA1 260350Z 16014KT 20/19 A2997 RMK A01 T02030186  RH  090%=      5-min Rain = 0
KEA1 260351Z 16014KT 20/19 A2997 RMK A01 T02040186  RH  089%=      5-min Rain = 0
KEA1 260352Z 16013KT 20/19 A2997 RMK A01 T02040186  RH  089%=      5-min Rain = 0
KEA1 260353Z 16012KT 20/19 A2997 RMK A01 T02040186  RH  089%=      5-min Rain = 0
KEA1 260354Z 16013KT 20/19 A2997 RMK A01 T02040186  RH  089%=      5-min Rain = 0
KEA1 260355Z 16012KT 20/19 A2997 RMK A01 T02040186  RH  089%=      5-min Rain = 0
KEA1 260356Z 16013KT 20/19 A2997 RMK A01 T02040186  RH  089%=      5-min Rain = 0
KEA1 260357Z 16013KT 20/19 A2997 RMK A01 T02040186  RH  089%=      5-min Rain = 0
KEA1 260358Z 16013KT 20/19 A2997 RMK A01 T02030185  RH  089%=      5-min Rain = 0
KEA1 260359Z 16013KT 20/19 A2997 RMK A01 T02030185  RH  089%=      5-min Rain = 0
KEA1 260400Z 16012KT 20/19 A2997 RMK A01 T02030185  RH  090%=      5-min Rain = 0
KEA1 260401Z 16014KT 20/19 A2997 RMK A01 T02030185  RH  090%=      5-min Rain = 0
KEA1 260402Z 16013KT 20/19 A2997 RMK A01 T02020185  RH  090%=      5-min Rain = 0
KEA1 260403Z 16013KT 20/19 A2997 RMK A01 T02020185  RH  090%=      5-min Rain = 0
KEA1 260404Z 16012KT 20/19 A2997 RMK A01 T02020185  RH  090%=      5-min Rain = 0
KEA1 260405Z 16013KT 20/19 A2997 RMK A01 T02020185  RH  090%=      5-min Rain = 0
KEA1 260406Z 16013KT 20/19 A2997 RMK A01 T02020185  RH  090%=      5-min Rain = 0
KEA1 260407Z 16013KT 20/19 A2997 RMK A01 T02020185  RH  090%=      5-min Rain = 0
KEA1 260408Z 16013KT 20/19 A2997 RMK A01 T02020185  RH  090%=      5-min Rain = 0
KEA1 260409Z 16013KT 20/19 A2997 RMK A01 T02020185  RH  090%=      5-min Rain = 0
KEA1 260410Z 16013KT 20/19 A2997 RMK A01 T02020185  RH  090%=      5-min Rain = 0
KEA1 260411Z 16015KT 20/18 A2997 RMK A01 T02010184  RH  090%=      5-min Rain = 0
KEA1 260412Z 16012KT 20/18 A2997 RMK A01 T02010184  RH  090%=      5-min Rain = 0
KEA1 260413Z 16014KT 20/18 A2997 RMK A01 T02020184  RH  090%=      5-min Rain = 0
KEA1 260414Z 16013KT 20/18 A2997 RMK A01 T02010184  RH  090%=      5-min Rain = 0
KEA1 260415Z 16012KT 20/18 A2996 RMK A01 T02010184  RH  090%=      5-min Rain = 0
KEA1 260416Z 16013KT 20/18 A2996 RMK A01 T02010184  RH  090%=      5-min Rain = 0
KEA1 260417Z 16013KT 20/18 A2996 RMK A01 T02010184  RH  090%=      5-min Rain = 0
KEA1 260418Z 16014KT 20/18 A2996 RMK A01 T02000184  RH  090%=      5-min Rain = 0
KEA1 260419Z 16014KT 20/18 A2997 RMK A01 T02010184  RH  090%=      5-min Rain = 0
KEA1 260420Z 16012KT 20/18 A2997 RMK A01 T02000184  RH  090%=      5-min Rain = 0
KEA1 260421Z 16015KT 20/18 A2996 RMK A01 T02000184  RH  090%=      5-min Rain = 0
KEA1 260422Z 16014KT 20/18 A2996 RMK A01 T02000184  RH  091%=      5-min Rain = 0
KEA1 260423Z 16015KT 20/18 A2996 RMK A01 T02000184  RH  090%=      5-min Rain = 0
KEA1 260424Z 16014KT 20/18 A2996 RMK A01 T02000184  RH  090%=      5-min Rain = 0
KEA1 260425Z 16015KT 20/18 A2997 RMK A01 T02000184  RH  090%=      5-min Rain = 0
KEA1 260426Z 16013KT 20/18 A2997 RMK A01 T02010184  RH  090%=      5-min Rain = 0
KEA1 260427Z 16014KT 20/18 A2997 RMK A01 T02000184  RH  090%=      5-min Rain = 0
KEA1 260428Z 16013KT 20/18 A2997 RMK A01 T02000184  RH  090%=      5-min Rain = 0
KEA1 260429Z 16015KT 20/18 A2997 RMK A01 T02010184  RH  090%=      5-min Rain = 0
KEA1 260430Z 16014KT 20/18 A2996 RMK A01 T02010184  RH  090%=      5-min Rain = 0
KEA1 260431Z 16014KT 20/18 A2996 RMK A01 T02010184  RH  090%=      5-min Rain = 0
KEA1 260432Z 16015KT 20/18 A2996 RMK A01 T02010184  RH  090%=      5-min Rain = 0
KEA1 260433Z 16016KT 20/18 A2996 RMK A01 T02010184  RH  090%=      5-min Rain = 0
KEA1 260434Z 16014G19KT 20/18 A2997 RMK A01 T02010184  RH  090%=      5-min Rain = 0
KEA1 260435Z 16015KT 20/18 A2996 RMK A01 T02020184  RH  090%=      5-min Rain = 0
KEA1 260436Z 16016KT 20/18 A2996 RMK A01 T02020184  RH  089%=      5-min Rain = 0
KEA1 260437Z 16014KT 20/18 A2997 RMK A01 T02030184  RH  089%=      5-min Rain = 0
KEA1 260438Z 16015KT 20/18 A2997 RMK A01 T02020184  RH  089%=      5-min Rain = 0
KEA1 260439Z 16015KT 20/18 A2997 RMK A01 T02010184  RH  090%=      5-min Rain = 0
KEA1 260440Z 16015KT 20/18 A2997 RMK A01 T02010184  RH  090%=      5-min Rain = 0
KEA1 260441Z 16014KT 20/18 A2997 RMK A01 T02020184  RH  089%=      5-min Rain = 0
KEA1 260442Z 16014KT 20/18 A2997 RMK A01 T02020184  RH  090%=      5-min Rain = 0
KEA1 260443Z 16014G19KT 20/18 A2997 RMK A01 T02020184  RH  090%=      5-min Rain = 0
KEA1 260444Z 16015KT 20/18 A2997 RMK A01 T02010184  RH  090%=      5-min Rain = 0
KEA1 260445Z 16013KT 20/18 A2997 RMK A01 T02010184  RH  090%=      5-min Rain = 0
KEA1 260446Z 16013KT 20/18 A2997 RMK A01 T02010184  RH  090%=      5-min Rain = 0
KEA1 260447Z 16016KT 20/18 A2997 RMK A01 T02010184  RH  090%=      5-min Rain = 0
KEA1 260448Z 16015KT 20/18 A2997 RMK A01 T02010184  RH  090%=      5-min Rain = 0
KEA1 260449Z 16015KT 20/18 A2997 RMK A01 T02010184  RH  090%=      5-min Rain = 0
KEA1 260450Z 16016KT 20/18 A2997 RMK A01 T02010184  RH  090%=      5-min Rain = 0
KEA1 260451Z 16016KT 20/18 A2997 RMK A01 T02010184  RH  090%=      5-min Rain = 0
KEA1 260452Z 16016KT 20/18 A2997 RMK A01 T02010184  RH  090%=      5-min Rain = 0
KEA1 260453Z 16015KT 20/18 A2997 RMK A01 T02010184  RH  090%=      5-min Rain = 0
KEA1 260454Z 16014KT 20/18 A2997 RMK A01 T02020184  RH  090%=      5-min Rain = 0
KEA1 260455Z 16016KT 20/18 A2997 RMK A01 T02020184  RH  090%=      5-min Rain = 0
KEA1 260456Z 16013KT 20/18 A2997 RMK A01 T02010184  RH  090%=      5-min Rain = 0
KEA1 260457Z 16014KT 20/18 A2997 RMK A01 T02010184  RH  090%=      5-min Rain = 0
KEA1 260458Z 16015KT 20/18 A2997 RMK A01 T02000183  RH  090%=      5-min Rain = 0
KEA1 260459Z 16017KT 20/18 A2997 RMK A01 T02000183  RH  090%=      5-min Rain = 0

Page generated in 0.0323 seconds.